Observation data for Stratford on 01/13/2021      Previous  Date  Next       Current Mesonet Observations  Soil Data  Daily Summary Page  Observations in Plain Language
KST4 130600Z 27010KT M03/M06 A3012 RMK A01 T10331062  RH  080%=      5-min Rain = 0
KST4 130601Z 27010KT M03/M06 A3012 RMK A01 T10331062  RH  080%=      5-min Rain = 0
KST4 130602Z 27011KT M03/M06 A3012 RMK A01 T10321062  RH  080%=      5-min Rain = 0
KST4 130603Z 27010KT M03/M06 A3012 RMK A01 T10311061  RH  080%=      5-min Rain = 0
KST4 130604Z 27010KT M03/M06 A3012 RMK A01 T10301061  RH  079%=      5-min Rain = 0
KST4 130605Z 27011KT M03/M06 A3012 RMK A01 T10301061  RH  079%=      5-min Rain = 0
KST4 130606Z 27012KT M03/M06 A3012 RMK A01 T10291060  RH  079%=      5-min Rain = 0
KST4 130607Z 27012KT M03/M06 A3012 RMK A01 T10271059  RH  079%=      5-min Rain = 0
KST4 130608Z 27012KT M03/M06 A3012 RMK A01 T10261059  RH  078%=      5-min Rain = 0
KST4 130609Z 27013KT M03/M06 A3012 RMK A01 T10251059  RH  078%=      5-min Rain = 0
KST4 130610Z 27013KT M03/M06 A3012 RMK A01 T10251059  RH  077%=      5-min Rain = 0
KST4 130611Z 27013KT M03/M06 A3012 RMK A01 T10251059  RH  077%=      5-min Rain = 0
KST4 130612Z 27013KT M02/M06 A3012 RMK A01 T10241059  RH  077%=      5-min Rain = 0
KST4 130613Z 27012KT M02/M06 A3012 RMK A01 T10241059  RH  077%=      5-min Rain = 0
KST4 130614Z 27012KT M02/M06 A3012 RMK A01 T10241059  RH  077%=      5-min Rain = 0
KST4 130615Z 27013KT M02/M06 A3012 RMK A01 T10241059  RH  077%=      5-min Rain = 0
KST4 130616Z 27013KT M02/M06 A3012 RMK A01 T10241059  RH  077%=      5-min Rain = 0
KST4 130617Z 27012KT M02/M06 A3012 RMK A01 T10241058  RH  077%=      5-min Rain = 0
KST4 130618Z 27013KT M02/M06 A3012 RMK A01 T10241059  RH  077%=      5-min Rain = 0
KST4 130619Z 27013KT M03/M06 A3012 RMK A01 T10251059  RH  077%=      5-min Rain = 0
KST4 130620Z 27014KT M02/M06 A3012 RMK A01 T10241059  RH  077%=      5-min Rain = 0
KST4 130621Z 27013KT M02/M06 A3012 RMK A01 T10241058  RH  077%=      5-min Rain = 0
KST4 130622Z 27014KT M02/M06 A3012 RMK A01 T10231058  RH  077%=      5-min Rain = 0
KST4 130623Z 27013KT M02/M06 A3012 RMK A01 T10231058  RH  077%=      5-min Rain = 0
KST4 130624Z 28013KT M02/M06 A3012 RMK A01 T10231058  RH  077%=      5-min Rain = 0
KST4 130625Z 27013KT M02/M06 A3012 RMK A01 T10231058  RH  077%=      5-min Rain = 0
KST4 130626Z 27013KT M02/M06 A3012 RMK A01 T10231058  RH  077%=      5-min Rain = 0
KST4 130627Z 27013KT M02/M06 A3012 RMK A01 T10231058  RH  077%=      5-min Rain = 0
KST4 130628Z 27012KT M02/M06 A3012 RMK A01 T10231058  RH  077%=      5-min Rain = 0
KST4 130629Z 27012KT M02/M06 A3012 RMK A01 T10231058  RH  077%=      5-min Rain = 0
KST4 130630Z 27012KT M02/M06 A3011 RMK A01 T10231058  RH  077%=      5-min Rain = 0
KST4 130631Z 27012KT M02/M06 A3011 RMK A01 T10231058  RH  077%=      5-min Rain = 0
KST4 130632Z 27012KT M02/M06 A3011 RMK A01 T10231058  RH  077%=      5-min Rain = 0
KST4 130633Z 27012KT M02/M06 A3011 RMK A01 T10231058  RH  077%=      5-min Rain = 0
KST4 130634Z 27012KT M02/M06 A3011 RMK A01 T10231058  RH  077%=      5-min Rain = 0
KST4 130635Z 26012KT M02/M06 A3011 RMK A01 T10231058  RH  077%=      5-min Rain = 0
KST4 130636Z 26013KT M02/M06 A3011 RMK A01 T10241058  RH  077%=      5-min Rain = 0
KST4 130637Z 27012KT M02/M06 A3011 RMK A01 T10231057  RH  077%=      5-min Rain = 0
KST4 130638Z 27013KT M02/M06 A3011 RMK A01 T10221057  RH  077%=      5-min Rain = 0
KST4 130639Z 27014KT M02/M06 A3011 RMK A01 T10211056  RH  077%=      5-min Rain = 0
KST4 130640Z 27013KT M02/M06 A3011 RMK A01 T10201056  RH  076%=      5-min Rain = 0
KST4 130641Z 27013KT M02/M06 A3011 RMK A01 T10191056  RH  076%=      5-min Rain = 0
KST4 130642Z 27013KT M02/M06 A3011 RMK A01 T10191056  RH  076%=      5-min Rain = 0
KST4 130643Z 27012KT M02/M06 A3011 RMK A01 T10191056  RH  076%=      5-min Rain = 0
KST4 130644Z 27012KT M02/M06 A3011 RMK A01 T10191056  RH  076%=      5-min Rain = 0
KST4 130645Z 27012KT M02/M06 A3011 RMK A01 T10191056  RH  076%=      5-min Rain = 0
KST4 130646Z 27013KT M02/M06 A3011 RMK A01 T10191056  RH  076%=      5-min Rain = 0
KST4 130647Z 27013KT M02/M06 A3011 RMK A01 T10191056  RH  076%=      5-min Rain = 0
KST4 130648Z 27013KT M02/M06 A3011 RMK A01 T10191056  RH  076%=      5-min Rain = 0
KST4 130649Z 26012KT M02/M06 A3011 RMK A01 T10191056  RH  076%=      5-min Rain = 0
KST4 130650Z 27013KT M02/M06 A3011 RMK A01 T10191056  RH  076%=      5-min Rain = 0
KST4 130651Z 26012KT M02/M06 A3011 RMK A01 T10191056  RH  076%=      5-min Rain = 0
KST4 130652Z 26012KT M02/M06 A3011 RMK A01 T10191056  RH  076%=      5-min Rain = 0
KST4 130653Z 26012KT M02/M06 A3011 RMK A01 T10191056  RH  076%=      5-min Rain = 0
KST4 130654Z 26012KT M02/M06 A3011 RMK A01 T10191056  RH  076%=      5-min Rain = 0
KST4 130655Z 26011KT M02/M06 A3011 RMK A01 T10191056  RH  076%=      5-min Rain = 0
KST4 130656Z 26011KT M02/M06 A3011 RMK A01 T10191057  RH  076%=      5-min Rain = 0
KST4 130657Z 26010KT M02/M06 A3011 RMK A01 T10211057  RH  076%=      5-min Rain = 0
KST4 130658Z 26011KT M02/M06 A3011 RMK A01 T10221058  RH  076%=      5-min Rain = 0
KST4 130659Z 26010KT M02/M06 A3011 RMK A01 T10231058  RH  077%=      5-min Rain = 0
KST4 130700Z 26011KT M02/M06 A3011 RMK A01 T10231058  RH  077%=      5-min Rain = 0
KST4 130701Z 26010KT M02/M06 A3011 RMK A01 T10241058  RH  078%=      5-min Rain = 0
KST4 130702Z 26010KT M02/M06 A3011 RMK A01 T10241058  RH  078%=      5-min Rain = 0
KST4 130703Z 26010KT M02/M06 A3011 RMK A01 T10231058  RH  077%=      5-min Rain = 0
KST4 130704Z 26011KT M02/M06 A3011 RMK A01 T10231057  RH  077%=      5-min Rain = 0
KST4 130705Z 26011KT M02/M06 A301 RMK A01 T10231057  RH  077%=      5-min Rain = 0
KST4 130706Z 26011KT M02/M06 A301 RMK A01 T10221058  RH  077%=      5-min Rain = 0
KST4 130707Z 25011KT M02/M06 A301 RMK A01 T10221058  RH  076%=      5-min Rain = 0
KST4 130708Z 25011KT M02/M06 A301 RMK A01 T10221059  RH  076%=      5-min Rain = 0
KST4 130709Z 25011KT M02/M06 A301 RMK A01 T10221059  RH  076%=      5-min Rain = 0
KST4 130710Z 26011KT M02/M06 A301 RMK A01 T10221059  RH  076%=      5-min Rain = 0
KST4 130711Z 25011KT M02/M06 A301 RMK A01 T10221060  RH  075%=      5-min Rain = 0
KST4 130712Z 25011KT M02/M06 A301 RMK A01 T10221060  RH  075%=      5-min Rain = 0
KST4 130713Z 25012KT M02/M06 A301 RMK A01 T10211060  RH  075%=      5-min Rain = 0
KST4 130714Z 26013KT M02/M06 A301 RMK A01 T10211060  RH  075%=      5-min Rain = 0
KST4 130715Z 25013KT M02/M06 A301 RMK A01 T10201060  RH  074%=      5-min Rain = 0
KST4 130716Z 25013KT M02/M06 A301 RMK A01 T10191060  RH  074%=      5-min Rain = 0
KST4 130717Z 25013KT M02/M06 A301 RMK A01 T10191060  RH  073%=      5-min Rain = 0
KST4 130718Z 25012KT M02/M06 A301 RMK A01 T10191061  RH  073%=      5-min Rain = 0
KST4 130719Z 25012KT M02/M06 A301 RMK A01 T10191061  RH  073%=      5-min Rain = 0
KST4 130720Z 25012KT M02/M06 A301 RMK A01 T10211061  RH  074%=      5-min Rain = 0
KST4 130721Z 25011KT M02/M06 A301 RMK A01 T10221062  RH  074%=      5-min Rain = 0
KST4 130722Z 25011KT M02/M06 A3009 RMK A01 T10231062  RH  075%=      5-min Rain = 0
KST4 130723Z 25011KT M02/M06 A3009 RMK A01 T10241062  RH  075%=      5-min Rain = 0
KST4 130724Z 25011KT M03/M06 A3009 RMK A01 T10261063  RH  076%=      5-min Rain = 0
KST4 130725Z 25010KT M03/M06 A3009 RMK A01 T10281064  RH  076%=      5-min Rain = 0
KST4 130726Z 25010KT M03/M06 A3009 RMK A01 T10291064  RH  077%=      5-min Rain = 0
KST4 130727Z 25009KT M03/M06 A3009 RMK A01 T10301064  RH  077%=      5-min Rain = 0
KST4 130728Z 25010KT M03/M07 A3009 RMK A01 T10311065  RH  078%=      5-min Rain = 0
KST4 130729Z 25010KT M03/M07 A3009 RMK A01 T10321065  RH  078%=      5-min Rain = 0
KST4 130730Z 25010KT M03/M07 A3009 RMK A01 T10331065  RH  078%=      5-min Rain = 0
KST4 130731Z 25010KT M03/M07 A3009 RMK A01 T10331065  RH  079%=      5-min Rain = 0
KST4 130732Z 25010KT M03/M07 A3009 RMK A01 T10331065  RH  079%=      5-min Rain = 0
KST4 130733Z 25010KT M03/M06 A3009 RMK A01 T10331064  RH  079%=      5-min Rain = 0
KST4 130734Z 25011KT M03/M06 A3009 RMK A01 T10321064  RH  079%=      5-min Rain = 0
KST4 130735Z 25011KT M03/M06 A3009 RMK A01 T10311063  RH  078%=      5-min Rain = 0
KST4 130736Z 25011KT M03/M06 A3009 RMK A01 T10301064  RH  077%=      5-min Rain = 0
KST4 130737Z 25011KT M03/M06 A3008 RMK A01 T10291064  RH  077%=      5-min Rain = 0
KST4 130738Z 25011KT M03/M06 A3008 RMK A01 T10281064  RH  076%=      5-min Rain = 0
KST4 130739Z 25011KT M03/M06 A3008 RMK A01 T10281064  RH  076%=      5-min Rain = 0
KST4 130740Z 25011KT M03/M07 A3008 RMK A01 T10281065  RH  076%=      5-min Rain = 0
KST4 130741Z 25011KT M03/M07 A3008 RMK A01 T10281065  RH  076%=      5-min Rain = 0
KST4 130742Z 24010KT M03/M07 A3008 RMK A01 T10281065  RH  076%=      5-min Rain = 0
KST4 130743Z 24010KT M03/M07 A3008 RMK A01 T10281065  RH  076%=      5-min Rain = 0
KST4 130744Z 24010KT M03/M07 A3008 RMK A01 T10281065  RH  076%=      5-min Rain = 0
KST4 130745Z 24010KT M03/M07 A3008 RMK A01 T10281065  RH  076%=      5-min Rain = 0
KST4 130746Z 24010KT M03/M07 A3008 RMK A01 T10291065  RH  076%=      5-min Rain = 0
KST4 130747Z 24010KT M03/M07 A3008 RMK A01 T10291065  RH  076%=      5-min Rain = 0
KST4 130748Z 24011KT M03/M07 A3008 RMK A01 T10291065  RH  076%=      5-min Rain = 0
KST4 130749Z 24011KT M03/M07 A3008 RMK A01 T10291065  RH  076%=      5-min Rain = 0
KST4 130750Z 24011KT M03/M07 A3008 RMK A01 T10291065  RH  076%=      5-min Rain = 0
KST4 130751Z 24011KT M03/M07 A3008 RMK A01 T10291065  RH  076%=      5-min Rain = 0
KST4 130752Z 25011KT M03/M07 A3008 RMK A01 T10281065  RH  076%=      5-min Rain = 0
KST4 130753Z 24011KT M03/M07 A3007 RMK A01 T10271065  RH  076%=      5-min Rain = 0
KST4 130754Z 24011KT M03/M07 A3007 RMK A01 T10271065  RH  075%=      5-min Rain = 0
KST4 130755Z 24011KT M03/M07 A3007 RMK A01 T10281065  RH  075%=      5-min Rain = 0
KST4 130756Z 24011KT M03/M07 A3007 RMK A01 T10281066  RH  075%=      5-min Rain = 0
KST4 130757Z 24011KT M03/M07 A3007 RMK A01 T10291066  RH  076%=      5-min Rain = 0
KST4 130758Z 24011KT M03/M07 A3007 RMK A01 T10291066  RH  076%=      5-min Rain = 0
KST4 130759Z 24011KT M03/M07 A3007 RMK A01 T10301067  RH  076%=      5-min Rain = 0
KST4 130800Z 24012KT M03/M07 A3007 RMK A01 T10301066  RH  076%=      5-min Rain = 0
KST4 130801Z 24011KT M03/M07 A3007 RMK A01 T10301066  RH  076%=      5-min Rain = 0
KST4 130802Z 24011KT M03/M07 A3007 RMK A01 T10301067  RH  076%=      5-min Rain = 0
KST4 130803Z 24011KT M03/M07 A3006 RMK A01 T10301066  RH  076%=      5-min Rain = 0
KST4 130804Z 24012KT M03/M07 A3006 RMK A01 T10311067  RH  076%=      5-min Rain = 0
KST4 130805Z 24012KT M03/M07 A3006 RMK A01 T10301066  RH  076%=      5-min Rain = 0
KST4 130806Z 24012KT M03/M07 A3006 RMK A01 T10271065  RH  075%=      5-min Rain = 0
KST4 130807Z 24012KT M03/M07 A3006 RMK A01 T10251065  RH  074%=      5-min Rain = 0
KST4 130808Z 24012KT M02/M07 A3006 RMK A01 T10241065  RH  073%=      5-min Rain = 0
KST4 130809Z 24011KT M02/M07 A3006 RMK A01 T10241066  RH  073%=      5-min Rain = 0
KST4 130810Z 25011KT M03/M07 A3006 RMK A01 T10261067  RH  073%=      5-min Rain = 0
KST4 130811Z 25010KT M03/M07 A3006 RMK A01 T10281068  RH  074%=      5-min Rain = 0
KST4 130812Z 25010KT M03/M07 A3006 RMK A01 T10301069  RH  074%=      5-min Rain = 0
KST4 130813Z 25010KT M03/M07 A3006 RMK A01 T10321070  RH  075%=      5-min Rain = 0
KST4 130814Z 24010KT M03/M07 A3006 RMK A01 T10331070  RH  076%=      5-min Rain = 0
KST4 130815Z 24010KT M04/M07 A3006 RMK A01 T10351070  RH  076%=      5-min Rain = 0
KST4 130816Z 24010KT M04/M07 A3006 RMK A01 T10361071  RH  077%=      5-min Rain = 0
KST4 130817Z 24010KT M04/M07 A3006 RMK A01 T10371071  RH  077%=      5-min Rain = 0
KST4 130818Z 24011KT M04/M07 A3006 RMK A01 T10371071  RH  078%=      5-min Rain = 0
KST4 130819Z 24011KT M04/M07 A3005 RMK A01 T10371071  RH  078%=      5-min Rain = 0
KST4 130820Z 24011KT M04/M07 A3005 RMK A01 T10371071  RH  078%=      5-min Rain = 0
KST4 130821Z 24011KT M04/M07 A3005 RMK A01 T10361070  RH  077%=      5-min Rain = 0
KST4 130822Z 24011KT M04/M07 A3005 RMK A01 T10361070  RH  077%=      5-min Rain = 0
KST4 130823Z 24011KT M04/M07 A3005 RMK A01 T10351070  RH  076%=      5-min Rain = 0
KST4 130824Z 24011KT M03/M07 A3005 RMK A01 T10341071  RH  076%=      5-min Rain = 0
KST4 130825Z 24011KT M03/M07 A3005 RMK A01 T10341071  RH  076%=      5-min Rain = 0
KST4 130826Z 24011KT M04/M07 A3005 RMK A01 T10351072  RH  076%=      5-min Rain = 0
KST4 130827Z 24011KT M04/M07 A3005 RMK A01 T10351072  RH  076%=      5-min Rain = 0
KST4 130828Z 24010KT M04/M07 A3005 RMK A01 T10371073  RH  076%=      5-min Rain = 0
KST4 130829Z 24010KT M04/M07 A3005 RMK A01 T10391074  RH  077%=      5-min Rain = 0
KST4 130830Z 24011KT M04/M08 A3005 RMK A01 T10411075  RH  077%=      5-min Rain = 0
KST4 130831Z 24011KT M04/M07 A3005 RMK A01 T10411074  RH  078%=      5-min Rain = 0
KST4 130832Z 24011KT M04/M07 A3005 RMK A01 T10411073  RH  078%=      5-min Rain = 0
KST4 130833Z 24011KT M04/M07 A3005 RMK A01 T10421073  RH  079%=      5-min Rain = 0
KST4 130834Z 24012KT M04/M07 A3005 RMK A01 T10411072  RH  079%=      5-min Rain = 0
KST4 130835Z 24012KT M04/M07 A3005 RMK A01 T10391071  RH  078%=      5-min Rain = 0
KST4 130836Z 25012KT M04/M07 A3005 RMK A01 T10381072  RH  078%=      5-min Rain = 0
KST4 130837Z 25012KT M04/M07 A3005 RMK A01 T10371071  RH  077%=      5-min Rain = 0
KST4 130838Z 25013KT M04/M07 A3005 RMK A01 T10351070  RH  077%=      5-min Rain = 0
KST4 130839Z 25013KT M03/M07 A3005 RMK A01 T10321069  RH  076%=      5-min Rain = 0
KST4 130840Z 25013KT M03/M07 A3005 RMK A01 T10311069  RH  075%=      5-min Rain = 0
KST4 130841Z 25013KT M03/M07 A3005 RMK A01 T10301069  RH  074%=      5-min Rain = 0
KST4 130842Z 25012KT M03/M07 A3005 RMK A01 T10291068  RH  074%=      5-min Rain = 0
KST4 130843Z 25012KT M03/M07 A3005 RMK A01 T10281068  RH  074%=      5-min Rain = 0
KST4 130844Z 25011KT M03/M07 A3005 RMK A01 T10271068  RH  074%=      5-min Rain = 0
KST4 130845Z 26011KT M03/M07 A3005 RMK A01 T10281068  RH  074%=      5-min Rain = 0
KST4 130846Z 26010KT M03/M07 A3005 RMK A01 T10291069  RH  074%=      5-min Rain = 0
KST4 130847Z 26009KT M03/M07 A3005 RMK A01 T10301069  RH  074%=      5-min Rain = 0
KST4 130848Z 26009KT M03/M07 A3005 RMK A01 T10321071  RH  074%=      5-min Rain = 0
KST4 130849Z 26010KT M03/M07 A3005 RMK A01 T10341072  RH  075%=      5-min Rain = 0
KST4 130850Z 26011KT M03/M07 A3005 RMK A01 T10341072  RH  075%=      5-min Rain = 0
KST4 130851Z 26011KT M03/M07 A3005 RMK A01 T10331070  RH  076%=      5-min Rain = 0
KST4 130852Z 27011KT M03/M07 A3005 RMK A01 T10321069  RH  075%=      5-min Rain = 0
KST4 130853Z 27010KT M03/M07 A3006 RMK A01 T10301068  RH  075%=      5-min Rain = 0
KST4 130854Z 27010KT M03/M07 A3006 RMK A01 T10281068  RH  074%=      5-min Rain = 0
KST4 130855Z 27010KT M03/M07 A3006 RMK A01 T10281068  RH  074%=      5-min Rain = 0
KST4 130856Z 27011KT M03/M07 A3006 RMK A01 T10281069  RH  074%=      5-min Rain = 0
KST4 130857Z 27011KT M03/M07 A3006 RMK A01 T10281068  RH  074%=      5-min Rain = 0
KST4 130858Z 27011KT M03/M07 A3006 RMK A01 T10271067  RH  074%=      5-min Rain = 0
KST4 130859Z 27011KT M03/M07 A3006 RMK A01 T10261067  RH  073%=      5-min Rain = 0
KST4 130900Z 27011KT M03/M07 A3006 RMK A01 T10271068  RH  073%=      5-min Rain = 0
KST4 130901Z 27010KT M03/M07 A3006 RMK A01 T10281069  RH  073%=      5-min Rain = 0
KST4 130902Z 28010KT M03/M07 A3006 RMK A01 T10291070  RH  073%=      5-min Rain = 0
KST4 130903Z 28010KT M03/M07 A3006 RMK A01 T10311071  RH  074%=      5-min Rain = 0
KST4 130904Z 28010KT M03/M07 A3006 RMK A01 T10321072  RH  074%=      5-min Rain = 0
KST4 130905Z 28010KT M03/M07 A3006 RMK A01 T10341072  RH  075%=      5-min Rain = 0
KST4 130906Z 28011KT M03/M07 A3006 RMK A01 T10341072  RH  075%=      5-min Rain = 0
KST4 130907Z 28010KT M04/M07 A3006 RMK A01 T10351072  RH  075%=      5-min Rain = 0
KST4 130908Z 27010KT M03/M07 A3006 RMK A01 T10341072  RH  075%=      5-min Rain = 0
KST4 130909Z 27010KT M04/M07 A3006 RMK A01 T10351072  RH  075%=      5-min Rain = 0
KST4 130910Z 27010KT M04/M07 A3006 RMK A01 T10351072  RH  076%=      5-min Rain = 0
KST4 130911Z 27011KT M04/M07 A3005 RMK A01 T10351071  RH  076%=      5-min Rain = 0
KST4 130912Z 27011KT M03/M07 A3005 RMK A01 T10341071  RH  076%=      5-min Rain = 0
KST4 130913Z 27011KT M03/M07 A3005 RMK A01 T10331070  RH  076%=      5-min Rain = 0
KST4 130914Z 27011KT M03/M07 A3005 RMK A01 T10311069  RH  075%=      5-min Rain = 0
KST4 130915Z 27011KT M03/M07 A3005 RMK A01 T10301069  RH  075%=      5-min Rain = 0
KST4 130916Z 27011KT M03/M07 A3005 RMK A01 T10301070  RH  074%=      5-min Rain = 0
KST4 130917Z 27013KT M03/M07 A3005 RMK A01 T10311070  RH  074%=      5-min Rain = 0
KST4 130918Z 27012KT M03/M07 A3005 RMK A01 T10311070  RH  074%=      5-min Rain = 0
KST4 130919Z 27012KT M03/M07 A3005 RMK A01 T10301070  RH  074%=      5-min Rain = 0
KST4 130920Z 27011KT M03/M07 A3005 RMK A01 T10291069  RH  074%=      5-min Rain = 0
KST4 130921Z 27013KT M03/M07 A3005 RMK A01 T10291069  RH  074%=      5-min Rain = 0
KST4 130922Z 27012KT M03/M07 A3005 RMK A01 T10281068  RH  074%=      5-min Rain = 0
KST4 130923Z 27013KT M03/M07 A3005 RMK A01 T10271068  RH  074%=      5-min Rain = 0
KST4 130924Z 27013KT M03/M07 A3005 RMK A01 T10271068  RH  073%=      5-min Rain = 0
KST4 130925Z 27012KT M03/M07 A3005 RMK A01 T10261068  RH  073%=      5-min Rain = 0
KST4 130926Z 27012KT M03/M07 A3005 RMK A01 T10261068  RH  073%=      5-min Rain = 0
KST4 130927Z 27012KT M03/M07 A3005 RMK A01 T10261068  RH  073%=      5-min Rain = 0
KST4 130928Z 27012KT M03/M07 A3004 RMK A01 T10271068  RH  073%=      5-min Rain = 0
KST4 130929Z 27012KT M03/M07 A3004 RMK A01 T10281069  RH  073%=      5-min Rain = 0
KST4 130930Z 27012KT M03/M07 A3004 RMK A01 T10281069  RH  074%=      5-min Rain = 0
KST4 130931Z 27011KT M03/M07 A3004 RMK A01 T10281069  RH  074%=      5-min Rain = 0
KST4 130932Z 27012KT M03/M07 A3004 RMK A01 T10281069  RH  074%=      5-min Rain = 0
KST4 130933Z 27012KT M03/M07 A3004 RMK A01 T10281069  RH  073%=      5-min Rain = 0
KST4 130934Z 27012KT M03/M07 A3004 RMK A01 T10291070  RH  074%=      5-min Rain = 0
KST4 130935Z 27012KT M03/M07 A3004 RMK A01 T10301069  RH  074%=      5-min Rain = 0
KST4 130936Z 27012KT M03/M07 A3004 RMK A01 T10301070  RH  074%=      5-min Rain = 0
KST4 130937Z 27013KT M03/M07 A3004 RMK A01 T10291069  RH  074%=      5-min Rain = 0
KST4 130938Z 27012KT M03/M07 A3004 RMK A01 T10281069  RH  073%=      5-min Rain = 0
KST4 130939Z 27013KT M03/M07 A3004 RMK A01 T10281069  RH  073%=      5-min Rain = 0
KST4 130940Z 27013KT M03/M07 A3003 RMK A01 T10281070  RH  073%=      5-min Rain = 0
KST4 130941Z 27012KT M03/M07 A3003 RMK A01 T10281070  RH  073%=      5-min Rain = 0
KST4 130942Z 27012KT M03/M07 A3003 RMK A01 T10281070  RH  073%=      5-min Rain = 0
KST4 130943Z 27012KT M03/M07 A3003 RMK A01 T10281070  RH  073%=      5-min Rain = 0
KST4 130944Z 27011KT M03/M07 A3003 RMK A01 T10281070  RH  073%=      5-min Rain = 0
KST4 130945Z 27010KT M03/M07 A3003 RMK A01 T10281070  RH  073%=      5-min Rain = 0
KST4 130946Z 26010KT M03/M07 A3003 RMK A01 T10291071  RH  073%=      5-min Rain = 0
KST4 130947Z 27010KT M03/M07 A3003 RMK A01 T10301071  RH  073%=      5-min Rain = 0
KST4 130948Z 26010KT M03/M07 A3003 RMK A01 T10311071  RH  074%=      5-min Rain = 0
KST4 130949Z 26010KT M03/M07 A3003 RMK A01 T10311071  RH  074%=      5-min Rain = 0
KST4 130950Z 26009KT M03/M07 A3003 RMK A01 T10311071  RH  074%=      5-min Rain = 0
KST4 130951Z 26009KT M03/M07 A3003 RMK A01 T10311071  RH  074%=      5-min Rain = 0
KST4 130952Z 26009KT M03/M07 A3003 RMK A01 T10311071  RH  074%=      5-min Rain = 0
KST4 130953Z 26010KT M03/M07 A3003 RMK A01 T10321071  RH  074%=      5-min Rain = 0
KST4 130954Z 26009KT M03/M07 A3002 RMK A01 T10311071  RH  074%=      5-min Rain = 0
KST4 130955Z 26009KT M03/M07 A3002 RMK A01 T10311071  RH  074%=      5-min Rain = 0
KST4 130956Z 26010KT M03/M07 A3002 RMK A01 T10311071  RH  074%=      5-min Rain = 0
KST4 130957Z 27010KT M03/M07 A3002 RMK A01 T10301071  RH  073%=      5-min Rain = 0
KST4 130958Z 27011KT M03/M07 A3002 RMK A01 T10301072  RH  073%=      5-min Rain = 0
KST4 130959Z 27011KT M03/M07 A3002 RMK A01 T10291072  RH  073%=      5-min Rain = 0
KST4 131000Z 27010KT M03/M07 A3002 RMK A01 T10291071  RH  072%=      5-min Rain = 0
KST4 131001Z 27010KT M03/M07 A3002 RMK A01 T10281072  RH  072%=      5-min Rain = 0
KST4 131002Z 27010KT M03/M07 A3002 RMK A01 T10281072  RH  072%=      5-min Rain = 0
KST4 131003Z 26010KT M03/M07 A3002 RMK A01 T10281072  RH  072%=      5-min Rain = 0
KST4 131004Z 26010KT M03/M07 A3002 RMK A01 T10281072  RH  072%=      5-min Rain = 0
KST4 131005Z 26010KT M03/M07 A3002 RMK A01 T10291072  RH  072%=      5-min Rain = 0
KST4 131006Z 27010KT M03/M07 A3002 RMK A01 T10301073  RH  072%=      5-min Rain = 0
KST4 131007Z 27010KT M03/M07 A3002 RMK A01 T10301072  RH  072%=      5-min Rain = 0
KST4 131008Z 27010KT M03/M07 A3002 RMK A01 T10301072  RH  072%=      5-min Rain = 0
KST4 131009Z 27009KT M03/M07 A3002 RMK A01 T10301072  RH  073%=      5-min Rain = 0
KST4 131010Z 28009KT M03/M07 A3002 RMK A01 T10311073  RH  073%=      5-min Rain = 0
KST4 131011Z 29010KT M03/M07 A3002 RMK A01 T10331074  RH  073%=      5-min Rain = 0
KST4 131012Z 29009KT M04/M08 A3002 RMK A01 T10351076  RH  073%=      5-min Rain = 0
KST4 131013Z 29009KT M04/M08 A3002 RMK A01 T10381078  RH  074%=      5-min Rain = 0
KST4 131014Z 29008KT M04/M08 A3002 RMK A01 T10401079  RH  075%=      5-min Rain = 0
KST4 131015Z 29008KT M04/M08 A3002 RMK A01 T10421079  RH  075%=      5-min Rain = 0
KST4 131016Z 30008KT M04/M08 A3002 RMK A01 T10441080  RH  076%=      5-min Rain = 0
KST4 131017Z 30008KT M05/M08 A3002 RMK A01 T10451080  RH  076%=      5-min Rain = 0
KST4 131018Z 29009KT M05/M08 A3002 RMK A01 T10461081  RH  077%=      5-min Rain = 0
KST4 131019Z 29009KT M05/M08 A3002 RMK A01 T10471081  RH  078%=      5-min Rain = 0
KST4 131020Z 28010KT M05/M08 A3002 RMK A01 T10481080  RH  078%=      5-min Rain = 0
KST4 131021Z 29010KT M05/M08 A3002 RMK A01 T10481080  RH  078%=      5-min Rain = 0
KST4 131022Z 29010KT M05/M08 A3002 RMK A01 T10481080  RH  078%=      5-min Rain = 0
KST4 131023Z 28010KT M05/M08 A3002 RMK A01 T10481080  RH  079%=      5-min Rain = 0
KST4 131024Z 28010KT M05/M08 A3002 RMK A01 T10481079  RH  079%=      5-min Rain = 0
KST4 131025Z 28011KT M05/M08 A3002 RMK A01 T10471079  RH  079%=      5-min Rain = 0
KST4 131026Z 29011KT M05/M08 A3002 RMK A01 T10471079  RH  078%=      5-min Rain = 0
KST4 131027Z 29011KT M05/M08 A3002 RMK A01 T10461079  RH  078%=      5-min Rain = 0
KST4 131028Z 29010KT M05/M08 A3002 RMK A01 T10451079  RH  078%=      5-min Rain = 0
KST4 131029Z 30010KT M05/M08 A3002 RMK A01 T10451079  RH  077%=      5-min Rain = 0
KST4 131030Z 30010KT M05/M08 A3002 RMK A01 T10461079  RH  077%=      5-min Rain = 0
KST4 131031Z 30010KT M05/M08 A3002 RMK A01 T10471080  RH  077%=      5-min Rain = 0
KST4 131032Z 29010KT M05/M08 A3002 RMK A01 T10471080  RH  078%=      5-min Rain = 0
KST4 131033Z 29010KT M05/M08 A3002 RMK A01 T10471080  RH  078%=      5-min Rain = 0
KST4 131034Z 29010KT M05/M08 A3002 RMK A01 T10481080  RH  078%=      5-min Rain = 0
KST4 131035Z 29010KT M05/M08 A3001 RMK A01 T10471080  RH  078%=      5-min Rain = 0
KST4 131036Z 29011KT M05/M08 A3001 RMK A01 T10471079  RH  078%=      5-min Rain = 0
KST4 131037Z 29011KT M05/M08 A3001 RMK A01 T10461079  RH  078%=      5-min Rain = 0
KST4 131038Z 29011KT M05/M08 A3001 RMK A01 T10461079  RH  077%=      5-min Rain = 0
KST4 131039Z 29010KT M05/M08 A3001 RMK A01 T10461079  RH  077%=      5-min Rain = 0
KST4 131040Z 29011KT M05/M08 A3001 RMK A01 T10461080  RH  077%=      5-min Rain = 0
KST4 131041Z 29011KT M05/M08 A3001 RMK A01 T10451079  RH  077%=      5-min Rain = 0
KST4 131042Z 29012KT M04/M08 A3001 RMK A01 T10441079  RH  077%=      5-min Rain = 0
KST4 131043Z 29011KT M04/M08 A3001 RMK A01 T10441079  RH  076%=      5-min Rain = 0
KST4 131044Z 29012KT M04/M08 A3001 RMK A01 T10431079  RH  076%=      5-min Rain = 0
KST4 131045Z 29012KT M04/M08 A3001 RMK A01 T10421078  RH  076%=      5-min Rain = 0
KST4 131046Z 29013KT M04/M08 A3001 RMK A01 T10401077  RH  075%=      5-min Rain = 0
KST4 131047Z 29013KT M04/M08 A3001 RMK A01 T10371076  RH  074%=      5-min Rain = 0
KST4 131048Z 29013KT M04/M08 A3001 RMK A01 T10351076  RH  073%=      5-min Rain = 0
KST4 131049Z 29012KT M03/M08 A3001 RMK A01 T10341076  RH  073%=      5-min Rain = 0
KST4 131050Z 29013KT M03/M08 A3001 RMK A01 T10331076  RH  072%=      5-min Rain = 0
KST4 131051Z 29013KT M03/M08 A3001 RMK A01 T10321076  RH  071%=      5-min Rain = 0
KST4 131052Z 29012KT M03/M08 A3001 RMK A01 T10311076  RH  071%=      5-min Rain = 0
KST4 131053Z 29011KT M03/M08 A3001 RMK A01 T10301077  RH  070%=      5-min Rain = 0
KST4 131054Z 29012KT M03/M08 A3001 RMK A01 T10301077  RH  070%=      5-min Rain = 0
KST4 131055Z 29012KT M03/M08 A3001 RMK A01 T10301078  RH  070%=      5-min Rain = 0
KST4 131056Z 29012KT M03/M08 A3001 RMK A01 T10291078  RH  069%=      5-min Rain = 0
KST4 131057Z 29012KT M03/M08 A3001 RMK A01 T10291078  RH  069%=      5-min Rain = 0
KST4 131058Z 29011KT M03/M08 A3001 RMK A01 T10281078  RH  068%=      5-min Rain = 0
KST4 131059Z 29010KT M03/M08 A3001 RMK A01 T10271078  RH  068%=      5-min Rain = 0
KST4 131100Z 29010KT M03/M08 A3001 RMK A01 T10271079  RH  068%=      5-min Rain = 0
KST4 131101Z 29010KT M03/M08 A3001 RMK A01 T10281080  RH  067%=      5-min Rain = 0
KST4 131102Z 29009KT M03/M08 A3001 RMK A01 T10271079  RH  067%=      5-min Rain = 0
KST4 131103Z 29009KT M03/M08 A3001 RMK A01 T10281080  RH  067%=      5-min Rain = 0
KST4 131104Z 29010KT M03/M08 A3001 RMK A01 T10281080  RH  067%=      5-min Rain = 0
KST4 131105Z 29010KT M03/M08 A3001 RMK A01 T10281080  RH  067%=      5-min Rain = 0
KST4 131106Z 29010KT M03/M08 A3001 RMK A01 T10281081  RH  067%=      5-min Rain = 0
KST4 131107Z 28011KT M03/M08 A3001 RMK A01 T10281081  RH  067%=      5-min Rain = 0
KST4 131108Z 28010KT M03/M08 A3001 RMK A01 T10281081  RH  067%=      5-min Rain = 0
KST4 131109Z 28010KT M03/M08 A3001 RMK A01 T10281081  RH  067%=      5-min Rain = 0
KST4 131110Z 28010KT M03/M08 A3001 RMK A01 T10281082  RH  067%=      5-min Rain = 0
KST4 131111Z 28010KT M03/M08 A3001 RMK A01 T10281081  RH  067%=      5-min Rain = 0
KST4 131112Z 28010KT M03/M08 A3001 RMK A01 T10281082  RH  066%=      5-min Rain = 0
KST4 131113Z 29010KT M03/M08 A3001 RMK A01 T10281082  RH  066%=      5-min Rain = 0
KST4 131114Z 29009KT M03/M08 A3002 RMK A01 T10291083  RH  066%=      5-min Rain = 0
KST4 131115Z 29009KT M03/M08 A3002 RMK A01 T10301083  RH  067%=      5-min Rain = 0
KST4 131116Z 28009KT M03/M08 A3002 RMK A01 T10311084  RH  067%=      5-min Rain = 0
KST4 131117Z 28009KT M03/M08 A3001 RMK A01 T10321084  RH  067%=      5-min Rain = 0
KST4 131118Z 28008KT M03/M09 A3001 RMK A01 T10331085  RH  068%=      5-min Rain = 0
KST4 131119Z 28008KT M03/M09 A3001 RMK A01 T10341085  RH  068%=      5-min Rain = 0
KST4 131120Z 28008KT M04/M09 A3001 RMK A01 T10361085  RH  069%=      5-min Rain = 0
KST4 131121Z 28008KT M04/M09 A3001 RMK A01 T10371085  RH  069%=      5-min Rain = 0
KST4 131122Z 28008KT M04/M08 A3001 RMK A01 T10371084  RH  070%=      5-min Rain = 0
KST4 131123Z 28008KT M04/M08 A3001 RMK A01 T10371084  RH  070%=      5-min Rain = 0
KST4 131124Z 28008KT M04/M09 A3001 RMK A01 T10381085  RH  070%=      5-min Rain = 0
KST4 131125Z 28008KT M04/M09 A3001 RMK A01 T10391085  RH  070%=      5-min Rain = 0
KST4 131126Z 28008KT M04/M09 A3001 RMK A01 T10401086  RH  071%=      5-min Rain = 0
KST4 131127Z 28007KT M04/M09 A3001 RMK A01 T10411086  RH  071%=      5-min Rain = 0
KST4 131128Z 28008KT M04/M09 A3001 RMK A01 T10421086  RH  071%=      5-min Rain = 0
KST4 131129Z 28008KT M04/M09 A3001 RMK A01 T10431086  RH  072%=      5-min Rain = 0
KST4 131130Z 28008KT M04/M09 A3001 RMK A01 T10431087  RH  072%=      5-min Rain = 0
KST4 131131Z 28008KT M04/M09 A3001 RMK A01 T10431087  RH  072%=      5-min Rain = 0
KST4 131132Z 28009KT M04/M09 A3001 RMK A01 T10431087  RH  072%=      5-min Rain = 0
KST4 131133Z 28010KT M04/M09 A3001 RMK A01 T10431086  RH  072%=      5-min Rain = 0
KST4 131134Z 28010KT M04/M09 A3001 RMK A01 T10411086  RH  071%=      5-min Rain = 0
KST4 131135Z 28009KT M04/M09 A3001 RMK A01 T10391085  RH  070%=      5-min Rain = 0
KST4 131136Z 28010KT M04/M09 A3001 RMK A01 T10381086  RH  069%=      5-min Rain = 0
KST4 131137Z 28010KT M04/M09 A3001 RMK A01 T10371087  RH  069%=      5-min Rain = 0
KST4 131138Z 28010KT M04/M09 A3001 RMK A01 T10361087  RH  068%=      5-min Rain = 0
KST4 131139Z 29010KT M04/M09 A3001 RMK A01 T10361087  RH  067%=      5-min Rain = 0
KST4 131140Z 29009KT M04/M09 A3001 RMK A01 T10351087  RH  067%=      5-min Rain = 0
KST4 131141Z 29009KT M03/M09 A3001 RMK A01 T10341087  RH  066%=      5-min Rain = 0
KST4 131142Z 29008KT M03/M09 A3001 RMK A01 T10331087  RH  066%=      5-min Rain = 0
KST4 131143Z 29008KT M03/M09 A3001 RMK A01 T10341088  RH  066%=      5-min Rain = 0
KST4 131144Z 29007KT M03/M09 A3001 RMK A01 T10341088  RH  067%=      5-min Rain = 0
KST4 131145Z 28007KT M04/M09 A3001 RMK A01 T10361088  RH  067%=      5-min Rain = 0
KST4 131146Z 28007KT M04/M09 A3001 RMK A01 T10371089  RH  067%=      5-min Rain = 0
KST4 131147Z 27007KT M04/M09 A3001 RMK A01 T10371088  RH  068%=      5-min Rain = 0
KST4 131148Z 27007KT M04/M09 A30 RMK A01 T10381088  RH  068%=      5-min Rain = 0
KST4 131149Z 28007KT M04/M09 A30 RMK A01 T10391088  RH  069%=      5-min Rain = 0
KST4 131150Z 28008KT M04/M09 A30 RMK A01 T10391088  RH  069%=      5-min Rain = 0
KST4 131151Z 28008KT M04/M09 A30 RMK A01 T10401088  RH  069%=      5-min Rain = 0
KST4 131152Z 29008KT M04/M09 A30 RMK A01 T10401088  RH  069%=      5-min Rain = 0
KST4 131153Z 29008KT M04/M09 A30 RMK A01 T10411089  RH  069%=      5-min Rain = 0
KST4 131154Z 29009KT M04/M09 A30 RMK A01 T10421090  RH  069%=      5-min Rain = 0
KST4 131155Z 29009KT M04/M09 A3001 RMK A01 T10421090  RH  069%=      5-min Rain = 0
KST4 131156Z 29010KT M04/M09 A3001 RMK A01 T10421090  RH  069%=      5-min Rain = 0
KST4 131157Z 29011KT M04/M09 A3001 RMK A01 T10401090  RH  068%=      5-min Rain = 0
KST4 131158Z 29011KT M04/M09 A3001 RMK A01 T10371089  RH  067%=      5-min Rain = 0
KST4 131159Z 29010KT M04/M09 A3001 RMK A01 T10351088  RH  067%=      5-min Rain = 0
KST4 131200Z 29010KT M03/M09 A3001 RMK A01 T10341089  RH  066%=      5-min Rain = 0
KST4 131201Z 29010KT M03/M09 A30 RMK A01 T10341089  RH  066%=      5-min Rain = 0
KST4 131202Z 28009KT M03/M09 A30 RMK A01 T10341089  RH  065%=      5-min Rain = 0
KST4 131203Z 28009KT M03/M09 A30 RMK A01 T10341090  RH  065%=      5-min Rain = 0
KST4 131204Z 28009KT M03/M09 A30 RMK A01 T10341090  RH  065%=      5-min Rain = 0
KST4 131205Z 27008KT M03/M09 A30 RMK A01 T10331089  RH  065%=      5-min Rain = 0
KST4 131206Z 27008KT M03/M09 A30 RMK A01 T10331088  RH  066%=      5-min Rain = 0
KST4 131207Z 27009KT M03/M09 A30 RMK A01 T10331088  RH  066%=      5-min Rain = 0
KST4 131208Z 27009KT M03/M09 A30 RMK A01 T10331088  RH  066%=      5-min Rain = 0
KST4 131209Z 27009KT M03/M09 A30 RMK A01 T10321088  RH  065%=      5-min Rain = 0
KST4 131210Z 28009KT M03/M09 A30 RMK A01 T10311088  RH  065%=      5-min Rain = 0
KST4 131211Z 28009KT M03/M09 A30 RMK A01 T10301088  RH  064%=      5-min Rain = 0
KST4 131212Z 27009KT M03/M09 A30 RMK A01 T10291088  RH  064%=      5-min Rain = 0
KST4 131213Z 27009KT M03/M09 A30 RMK A01 T10291089  RH  063%=      5-min Rain = 0
KST4 131214Z 28009KT M03/M09 A30 RMK A01 T10281089  RH  063%=      5-min Rain = 0
KST4 131215Z 27009KT M03/M09 A30 RMK A01 T10281089  RH  063%=      5-min Rain = 0
KST4 131216Z 27010KT M03/M09 A30 RMK A01 T10271089  RH  063%=      5-min Rain = 0
KST4 131217Z 27009KT M03/M09 A30 RMK A01 T10271089  RH  062%=      5-min Rain = 0
KST4 131218Z 27009KT M03/M09 A30 RMK A01 T10271089  RH  062%=      5-min Rain = 0
KST4 131219Z 26008KT M03/M09 A30 RMK A01 T10261088  RH  063%=      5-min Rain = 0
KST4 131220Z 26008KT M03/M09 A30 RMK A01 T10271087  RH  063%=      5-min Rain = 0
KST4 131221Z 27008KT M03/M09 A2999 RMK A01 T10281086  RH  064%=      5-min Rain = 0
KST4 131222Z 27008KT M03/M09 A2999 RMK A01 T10291085  RH  065%=      5-min Rain = 0
KST4 131223Z 27009KT M03/M09 A2999 RMK A01 T10301085  RH  066%=      5-min Rain = 0
KST4 131224Z 26008KT M03/M09 A2999 RMK A01 T10311085  RH  067%=      5-min Rain = 0
KST4 131225Z 26008KT M03/M08 A30 RMK A01 T10321084  RH  067%=      5-min Rain = 0
KST4 131226Z 27008KT M03/M08 A30 RMK A01 T10321083  RH  068%=      5-min Rain = 0
KST4 131227Z 27008KT M03/M08 A30 RMK A01 T10331083  RH  068%=      5-min Rain = 0
KST4 131228Z 27009KT M03/M08 A30 RMK A01 T10341083  RH  069%=      5-min Rain = 0
KST4 131229Z 27009KT M03/M08 A30 RMK A01 T10341083  RH  069%=      5-min Rain = 0
KST4 131230Z 27009KT M03/M08 A30 RMK A01 T10341083  RH  069%=      5-min Rain = 0
KST4 131231Z 27009KT M03/M08 A30 RMK A01 T10331083  RH  068%=      5-min Rain = 0
KST4 131232Z 27009KT M03/M08 A30 RMK A01 T10331083  RH  068%=      5-min Rain = 0
KST4 131233Z 27010KT M03/M08 A30 RMK A01 T10331084  RH  068%=      5-min Rain = 0
KST4 131234Z 27009KT M03/M08 A30 RMK A01 T10321084  RH  067%=      5-min Rain = 0
KST4 131235Z 27009KT M03/M09 A30 RMK A01 T10311085  RH  067%=      5-min Rain = 0
KST4 131236Z 27009KT M03/M09 A30 RMK A01 T10311085  RH  066%=      5-min Rain = 0
KST4 131237Z 28010KT M03/M09 A30 RMK A01 T10301085  RH  066%=      5-min Rain = 0
KST4 131238Z 28010KT M03/M09 A30 RMK A01 T10301086  RH  065%=      5-min Rain = 0
KST4 131239Z 28009KT M03/M09 A30 RMK A01 T10301086  RH  065%=      5-min Rain = 0
KST4 131240Z 28009KT M03/M09 A30 RMK A01 T10301086  RH  065%=      5-min Rain = 0
KST4 131241Z 28009KT M03/M09 A30 RMK A01 T10301086  RH  065%=      5-min Rain = 0
KST4 131242Z 28009KT M03/M09 A30 RMK A01 T10301087  RH  065%=      5-min Rain = 0
KST4 131243Z 28008KT M03/M09 A30 RMK A01 T10301087  RH  065%=      5-min Rain = 0
KST4 131244Z 29009KT M03/M09 A30 RMK A01 T10311087  RH  065%=      5-min Rain = 0
KST4 131245Z 28008KT M03/M09 A30 RMK A01 T10311087  RH  065%=      5-min Rain = 0
KST4 131246Z 28008KT M03/M09 A30 RMK A01 T10311087  RH  066%=      5-min Rain = 0
KST4 131247Z 28008KT M03/M09 A30 RMK A01 T10311086  RH  066%=      5-min Rain = 0
KST4 131248Z 28009KT M03/M09 A30 RMK A01 T10311086  RH  066%=      5-min Rain = 0
KST4 131249Z 28009KT M03/M09 A30 RMK A01 T10311086  RH  066%=      5-min Rain = 0
KST4 131250Z 28009KT M03/M09 A30 RMK A01 T10321086  RH  066%=      5-min Rain = 0
KST4 131251Z 28009KT M03/M09 A30 RMK A01 T10321086  RH  066%=      5-min Rain = 0
KST4 131252Z 28008KT M03/M09 A2999 RMK A01 T10321086  RH  066%=      5-min Rain = 0
KST4 131253Z 28008KT M03/M09 A2999 RMK A01 T10321085  RH  067%=      5-min Rain = 0
KST4 131254Z 27008KT M03/M09 A2999 RMK A01 T10321085  RH  067%=      5-min Rain = 0
KST4 131255Z 27008KT M03/M09 A2999 RMK A01 T10331085  RH  067%=      5-min Rain = 0
KST4 131256Z 27009KT M03/M08 A2999 RMK A01 T10331084  RH  068%=      5-min Rain = 0
KST4 131257Z 27009KT M03/M08 A2999 RMK A01 T10331084  RH  068%=      5-min Rain = 0
KST4 131258Z 26008KT M03/M08 A2999 RMK A01 T10331083  RH  068%=      5-min Rain = 0
KST4 131259Z 26009KT M03/M08 A2999 RMK A01 T10331082  RH  069%=      5-min Rain = 0
KST4 131300Z 27009KT M03/M08 A2999 RMK A01 T10331081  RH  069%=      5-min Rain = 0
KST4 131301Z 27009KT M03/M08 A2999 RMK A01 T10331079  RH  070%=      5-min Rain = 0
KST4 131302Z 26008KT M03/M08 A2999 RMK A01 T10331079  RH  071%=      5-min Rain = 0
KST4 131303Z 26008KT M03/M08 A2999 RMK A01 T10331079  RH  071%=      5-min Rain = 0
KST4 131304Z 27009KT M03/M08 A2999 RMK A01 T10321078  RH  070%=      5-min Rain = 0
KST4 131305Z 26008KT M03/M08 A2999 RMK A01 T10321078  RH  070%=      5-min Rain = 0
KST4 131306Z 26008KT M03/M08 A2999 RMK A01 T10321077  RH  071%=      5-min Rain = 0
KST4 131307Z 26008KT M03/M08 A2999 RMK A01 T10311076  RH  071%=      5-min Rain = 0
KST4 131308Z 26009KT M03/M08 A2999 RMK A01 T10321077  RH  071%=      5-min Rain = 0
KST4 131309Z 26008KT M03/M08 A2999 RMK A01 T10311077  RH  071%=      5-min Rain = 0
KST4 131310Z 26008KT M03/M08 A2999 RMK A01 T10311076  RH  071%=      5-min Rain = 0
KST4 131311Z 27007KT M03/M08 A2999 RMK A01 T10321076  RH  071%=      5-min Rain = 0
KST4 131312Z 27007KT M03/M08 A2999 RMK A01 T10321076  RH  071%=      5-min Rain = 0
KST4 131313Z 28008KT M03/M08 A2999 RMK A01 T10321076  RH  071%=      5-min Rain = 0
KST4 131314Z 27008KT M03/M08 A2999 RMK A01 T10321077  RH  071%=      5-min Rain = 0
KST4 131315Z 27008KT M03/M08 A2999 RMK A01 T10321077  RH  071%=      5-min Rain = 0
KST4 131316Z 27008KT M03/M08 A2998 RMK A01 T10321077  RH  071%=      5-min Rain = 0
KST4 131317Z 26008KT M03/M08 A2998 RMK A01 T10321077  RH  071%=      5-min Rain = 0
KST4 131318Z 26008KT M03/M08 A2998 RMK A01 T10321077  RH  071%=      5-min Rain = 0
KST4 131319Z 26008KT M03/M08 A2998 RMK A01 T10311076  RH  071%=      5-min Rain = 0
KST4 131320Z 26008KT M03/M08 A2998 RMK A01 T10311076  RH  071%=      5-min Rain = 0
KST4 131321Z 27008KT M03/M08 A2998 RMK A01 T10321076  RH  071%=      5-min Rain = 0
KST4 131322Z 27008KT M03/M08 A2998 RMK A01 T10321076  RH  072%=      5-min Rain = 0
KST4 131323Z 27008KT M03/M08 A2998 RMK A01 T10321076  RH  072%=      5-min Rain = 0
KST4 131324Z 26008KT M03/M08 A2998 RMK A01 T10321076  RH  072%=      5-min Rain = 0
KST4 131325Z 26008KT M03/M08 A2998 RMK A01 T10321076  RH  072%=      5-min Rain = 0
KST4 131326Z 26008KT M03/M08 A2998 RMK A01 T10321076  RH  072%=      5-min Rain = 0
KST4 131327Z 26008KT M03/M08 A2998 RMK A01 T10321076  RH  072%=      5-min Rain = 0
KST4 131328Z 27008KT M03/M08 A2998 RMK A01 T10321075  RH  072%=      5-min Rain = 0
KST4 131329Z 29008KT M03/M08 A2998 RMK A01 T10321075  RH  072%=      5-min Rain = 0
KST4 131330Z 28008KT M03/M08 A2998 RMK A01 T10321076  RH  071%=      5-min Rain = 0
KST4 131331Z 28008KT M03/M08 A2998 RMK A01 T10331078  RH  071%=      5-min Rain = 0
KST4 131332Z 28008KT M03/M08 A2998 RMK A01 T10331079  RH  071%=      5-min Rain = 0
KST4 131333Z 27008KT M03/M08 A2998 RMK A01 T10341079  RH  071%=      5-min Rain = 0
KST4 131334Z 27008KT M03/M08 A2998 RMK A01 T10341079  RH  071%=      5-min Rain = 0
KST4 131335Z 27009KT M03/M08 A2998 RMK A01 T10341079  RH  071%=      5-min Rain = 0
KST4 131336Z 27009KT M03/M08 A2998 RMK A01 T10331078  RH  071%=      5-min Rain = 0
KST4 131337Z 27009KT M03/M08 A2998 RMK A01 T10331078  RH  071%=      5-min Rain = 0
KST4 131338Z 27009KT M03/M08 A2998 RMK A01 T10321077  RH  071%=      5-min Rain = 0
KST4 131339Z 27008KT M03/M08 A2998 RMK A01 T10311077  RH  071%=      5-min Rain = 0
KST4 131340Z 28009KT M03/M08 A2998 RMK A01 T10311077  RH  070%=      5-min Rain = 0
KST4 131341Z 27009KT M03/M08 A2998 RMK A01 T10301077  RH  070%=      5-min Rain = 0
KST4 131342Z 27008KT M03/M08 A2998 RMK A01 T10301077  RH  070%=      5-min Rain = 0
KST4 131343Z 27008KT M03/M08 A2998 RMK A01 T10291078  RH  069%=      5-min Rain = 0
KST4 131344Z 28008KT M03/M08 A2998 RMK A01 T10291078  RH  069%=      5-min Rain = 0
KST4 131345Z 28008KT M03/M08 A2998 RMK A01 T10291078  RH  069%=      5-min Rain = 0
KST4 131346Z 28009KT M03/M08 A2998 RMK A01 T10291078  RH  069%=      5-min Rain = 0
KST4 131347Z 28008KT M03/M08 A2998 RMK A01 T10291079  RH  069%=      5-min Rain = 0
KST4 131348Z 28008KT M03/M08 A2998 RMK A01 T10301079  RH  069%=      5-min Rain = 0
KST4 131349Z 28008KT M03/M08 A2998 RMK A01 T10301079  RH  069%=      5-min Rain = 0
KST4 131350Z 28008KT M03/M08 A2998 RMK A01 T10301079  RH  069%=      5-min Rain = 0
KST4 131351Z 28008KT M03/M08 A2998 RMK A01 T10301079  RH  069%=      5-min Rain = 0
KST4 131352Z 28008KT M03/M08 A2998 RMK A01 T10301079  RH  069%=      5-min Rain = 0
KST4 131353Z 28008KT M03/M08 A2998 RMK A01 T10301079  RH  069%=      5-min Rain = 0
KST4 131354Z 28009KT M03/M08 A2998 RMK A01 T10301078  RH  069%=      5-min Rain = 0
KST4 131355Z 28008KT M03/M08 A2998 RMK A01 T10301079  RH  069%=      5-min Rain = 0
KST4 131356Z 28008KT M03/M08 A2998 RMK A01 T10311079  RH  069%=      5-min Rain = 0
KST4 131357Z 28008KT M03/M08 A2998 RMK A01 T10311079  RH  069%=      5-min Rain = 0
KST4 131358Z 28009KT M03/M08 A2998 RMK A01 T10311079  RH  070%=      5-min Rain = 0
KST4 131359Z 28009KT M03/M08 A2998 RMK A01 T10321079  RH  070%=      5-min Rain = 0
KST4 131400Z 28008KT M03/M08 A2998 RMK A01 T10311079  RH  070%=      5-min Rain = 0
KST4 131401Z 29009KT M03/M08 A2998 RMK A01 T10321079  RH  070%=      5-min Rain = 0
KST4 131402Z 28009KT M03/M08 A2998 RMK A01 T10311078  RH  070%=      5-min Rain = 0
KST4 131403Z 28009KT M03/M08 A2998 RMK A01 T10311077  RH  070%=      5-min Rain = 0
KST4 131404Z 28008KT M03/M08 A2998 RMK A01 T10301077  RH  070%=      5-min Rain = 0
KST4 131405Z 29008KT M03/M08 A2998 RMK A01 T10301077  RH  070%=      5-min Rain = 0
KST4 131406Z 29009KT M03/M08 A2998 RMK A01 T10301077  RH  070%=      5-min Rain = 0
KST4 131407Z 29008KT M03/M08 A2998 RMK A01 T10301076  RH  070%=      5-min Rain = 0
KST4 131408Z 29008KT M03/M08 A2998 RMK A01 T10291076  RH  070%=      5-min Rain = 0
KST4 131409Z 29008KT M03/M08 A2998 RMK A01 T10291076  RH  070%=      5-min Rain = 0
KST4 131410Z 29009KT M03/M08 A2998 RMK A01 T10291076  RH  070%=      5-min Rain = 0
KST4 131411Z 30010KT M03/M08 A2999 RMK A01 T10291075  RH  070%=      5-min Rain = 0
KST4 131412Z 30009KT M03/M08 A2999 RMK A01 T10291075  RH  070%=      5-min Rain = 0
KST4 131413Z 30009KT M03/M08 A2999 RMK A01 T10291075  RH  071%=      5-min Rain = 0
KST4 131414Z 30009KT M03/M07 A2999 RMK A01 T10281074  RH  070%=      5-min Rain = 0
KST4 131415Z 29009KT M03/M07 A2998 RMK A01 T10281074  RH  070%=      5-min Rain = 0
KST4 131416Z 29009KT M03/M07 A2998 RMK A01 T10271074  RH  070%=      5-min Rain = 0
KST4 131417Z 29009KT M03/M07 A2998 RMK A01 T10271074  RH  070%=      5-min Rain = 0
KST4 131418Z 29009KT M03/M07 A2998 RMK A01 T10261074  RH  070%=      5-min Rain = 0
KST4 131419Z 29009KT M03/M07 A2998 RMK A01 T10271074  RH  070%=      5-min Rain = 0
KST4 131420Z 29008KT M03/M07 A2998 RMK A01 T10261073  RH  070%=      5-min Rain = 0
KST4 131421Z 29008KT M03/M07 A2998 RMK A01 T10261073  RH  070%=      5-min Rain = 0
KST4 131422Z 29009KT M03/M07 A2998 RMK A01 T10251073  RH  070%=      5-min Rain = 0
KST4 131423Z 29008KT M03/M07 A2998 RMK A01 T10251073  RH  070%=      5-min Rain = 0
KST4 131424Z 29008KT M03/M07 A2998 RMK A01 T10251073  RH  070%=      5-min Rain = 0
KST4 131425Z 29008KT M02/M07 A2998 RMK A01 T10241072  RH  070%=      5-min Rain = 0
KST4 131426Z 29009KT M02/M07 A2998 RMK A01 T10241072  RH  069%=      5-min Rain = 0
KST4 131427Z 29009KT M02/M07 A2998 RMK A01 T10231072  RH  069%=      5-min Rain = 0
KST4 131428Z 29008KT M02/M07 A2998 RMK A01 T10221071  RH  069%=      5-min Rain = 0
KST4 131429Z 29008KT M02/M07 A2998 RMK A01 T10221071  RH  069%=      5-min Rain = 0
KST4 131430Z 29008KT M02/M07 A2998 RMK A01 T10211071  RH  069%=      5-min Rain = 0
KST4 131431Z 29008KT M02/M07 A2998 RMK A01 T10201070  RH  069%=      5-min Rain = 0
KST4 131432Z 28009KT M02/M07 A2998 RMK A01 T10201070  RH  069%=      5-min Rain = 0
KST4 131433Z 28009KT M02/M07 A2998 RMK A01 T10191069  RH  069%=      5-min Rain = 0
KST4 131434Z 28008KT M02/M07 A2998 RMK A01 T10181069  RH  068%=      5-min Rain = 0
KST4 131435Z 28008KT M02/M07 A2998 RMK A01 T10161068  RH  068%=      5-min Rain = 0
KST4 131436Z 28009KT M02/M07 A2998 RMK A01 T10151067  RH  067%=      5-min Rain = 0
KST4 131437Z 28008KT M01/M07 A2998 RMK A01 T10131067  RH  067%=      5-min Rain = 0
KST4 131438Z 29008KT M01/M07 A2998 RMK A01 T10121066  RH  067%=      5-min Rain = 0
KST4 131439Z 29008KT M01/M07 A2998 RMK A01 T10111066  RH  066%=      5-min Rain = 0
KST4 131440Z 29008KT M01/M07 A2998 RMK A01 T10091065  RH  066%=      5-min Rain = 0
KST4 131441Z 28007KT M01/M06 A2998 RMK A01 T10071064  RH  065%=      5-min Rain = 0
KST4 131442Z 29007KT M01/M06 A2998 RMK A01 T10051064  RH  065%=      5-min Rain = 0
KST4 131443Z 28007KT M00/M06 A2998 RMK A01 T10031063  RH  064%=      5-min Rain = 0
KST4 131444Z 28007KT M00/M06 A2998 RMK A01 T10011063  RH  063%=      5-min Rain = 0
KST4 131445Z 28006KT 00/M06 A2998 RMK A01 T00011062  RH  063%=      5-min Rain = 0
KST4 131446Z 28006KT 00/M06 A2998 RMK A01 T00021062  RH  062%=      5-min Rain = 0
KST4 131447Z 28007KT 00/M06 A2998 RMK A01 T00031061  RH  062%=      5-min Rain = 0
KST4 131448Z 28007KT 00/M06 A2998 RMK A01 T00041062  RH  061%=      5-min Rain = 0
KST4 131449Z 28006KT 01/M06 A2998 RMK A01 T00061060  RH  061%=      5-min Rain = 0
KST4 131450Z 29007KT 01/M06 A2998 RMK A01 T00071061  RH  061%=      5-min Rain = 0
KST4 131451Z 29006KT 01/M06 A2998 RMK A01 T00081060  RH  060%=      5-min Rain = 0
KST4 131452Z 29006KT 01/M06 A2998 RMK A01 T00091059  RH  060%=      5-min Rain = 0
KST4 131453Z 29006KT 01/M06 A2998 RMK A01 T00101060  RH  060%=      5-min Rain = 0
KST4 131454Z 29006KT 01/M06 A2998 RMK A01 T00111059  RH  060%=      5-min Rain = 0
KST4 131455Z 29007KT 01/M06 A2998 RMK A01 T00121059  RH  059%=      5-min Rain = 0
KST4 131456Z 29006KT 01/M06 A2998 RMK A01 T00121059  RH  059%=      5-min Rain = 0
KST4 131457Z 28006KT 01/M06 A2998 RMK A01 T00131059  RH  059%=      5-min Rain = 0
KST4 131458Z 28007KT 01/M06 A2998 RMK A01 T00141059  RH  058%=      5-min Rain = 0
KST4 131459Z 28006KT 01/M06 A2998 RMK A01 T00141059  RH  058%=      5-min Rain = 0
KST4 131500Z 28006KT 02/M06 A2998 RMK A01 T00151058  RH  058%=      5-min Rain = 0
KST4 131501Z 28005KT 02/M06 A2998 RMK A01 T00161057  RH  058%=      5-min Rain = 0
KST4 131502Z 28006KT 02/M06 A2998 RMK A01 T00161057  RH  058%=      5-min Rain = 0
KST4 131503Z 28006KT 02/M06 A2998 RMK A01 T00161057  RH  058%=      5-min Rain = 0
KST4 131504Z 27006KT 02/M06 A2998 RMK A01 T00161057  RH  059%=      5-min Rain = 0
KST4 131505Z 27005KT 02/M06 A2998 RMK A01 T00151056  RH  059%=      5-min Rain = 0
KST4 131506Z 27005KT 01/M06 A2998 RMK A01 T00141055  RH  060%=      5-min Rain = 0
KST4 131507Z 27005KT 01/M06 A2998 RMK A01 T00131055  RH  060%=      5-min Rain = 0
KST4 131508Z 28006KT 01/M06 A2998 RMK A01 T00121055  RH  061%=      5-min Rain = 0
KST4 131509Z 28006KT 01/M06 A2998 RMK A01 T00121055  RH  061%=      5-min Rain = 0
KST4 131510Z 28006KT 01/M06 A2998 RMK A01 T00121055  RH  061%=      5-min Rain = 0
KST4 131511Z 28007KT 01/M06 A2998 RMK A01 T00121055  RH  061%=      5-min Rain = 0
KST4 131512Z 28006KT 01/M06 A2998 RMK A01 T00121056  RH  061%=      5-min Rain = 0
KST4 131513Z 28006KT 01/M06 A2998 RMK A01 T00121055  RH  061%=      5-min Rain = 0
KST4 131514Z 28006KT 01/M06 A2998 RMK A01 T00111055  RH  061%=      5-min Rain = 0
KST4 131515Z 28007KT 01/M06 A2998 RMK A01 T00111055  RH  061%=      5-min Rain = 0
KST4 131516Z 28007KT 01/M06 A2998 RMK A01 T00111055  RH  061%=      5-min Rain = 0
KST4 131517Z 28006KT 01/M05 A2998 RMK A01 T00121054  RH  061%=      5-min Rain = 0
KST4 131518Z 28006KT 01/M05 A2999 RMK A01 T00121054  RH  061%=      5-min Rain = 0
KST4 131519Z 28007KT 01/M05 A2999 RMK A01 T00131054  RH  061%=      5-min Rain = 0
KST4 131520Z 28007KT 01/M05 A2999 RMK A01 T00131054  RH  061%=      5-min Rain = 0
KST4 131521Z 28007KT 01/M05 A2999 RMK A01 T00141054  RH  061%=      5-min Rain = 0
KST4 131522Z 28007KT 01/M05 A2999 RMK A01 T00141054  RH  061%=      5-min Rain = 0
KST4 131523Z 28007KT 01/M05 A2999 RMK A01 T00141054  RH  061%=      5-min Rain = 0
KST4 131524Z 28007KT 01/M05 A2999 RMK A01 T00141054  RH  061%=      5-min Rain = 0
KST4 131525Z 28007KT 01/M05 A2999 RMK A01 T00141053  RH  061%=      5-min Rain = 0
KST4 131526Z 28007KT 02/M05 A2999 RMK A01 T00151053  RH  061%=      5-min Rain = 0
KST4 131527Z 29007KT 02/M05 A2999 RMK A01 T00161053  RH  060%=      5-min Rain = 0
KST4 131528Z 28007KT 02/M05 A2999 RMK A01 T00161054  RH  060%=      5-min Rain = 0
KST4 131529Z 28007KT 02/M05 A2999 RMK A01 T00181053  RH  059%=      5-min Rain = 0
KST4 131530Z 28006KT 02/M05 A2999 RMK A01 T00181053  RH  059%=      5-min Rain = 0
KST4 131531Z 28006KT 02/M05 A2999 RMK A01 T00191053  RH  059%=      5-min Rain = 0
KST4 131532Z 28006KT 02/M05 A2999 RMK A01 T00191053  RH  059%=      5-min Rain = 0
KST4 131533Z 29006KT 02/M05 A2999 RMK A01 T00191053  RH  059%=      5-min Rain = 0
KST4 131534Z 29007KT 02/M05 A2999 RMK A01 T00191053  RH  059%=      5-min Rain = 0
KST4 131535Z 29007KT 02/M05 A2999 RMK A01 T00191053  RH  059%=      5-min Rain = 0
KST4 131536Z 29007KT 02/M05 A2999 RMK A01 T00191053  RH  059%=      5-min Rain = 0
KST4 131537Z 28007KT 02/M05 A2999 RMK A01 T00191053  RH  059%=      5-min Rain = 0
KST4 131538Z 29007KT 02/M05 A30 RMK A01 T00201052  RH  059%=      5-min Rain = 0
KST4 131539Z 29007KT 02/M05 A30 RMK A01 T00211051  RH  059%=      5-min Rain = 0
KST4 131540Z 29007KT 02/M05 A30 RMK A01 T00221050  RH  059%=      5-min Rain = 0
KST4 131541Z 29007KT 02/M05 A30 RMK A01 T00241050  RH  058%=      5-min Rain = 0
KST4 131542Z 29008KT 03/M05 A30 RMK A01 T00261049  RH  058%=      5-min Rain = 0
KST4 131543Z 29008KT 03/M05 A30 RMK A01 T00281047  RH  058%=      5-min Rain = 0
KST4 131544Z 29008KT 03/M05 A30 RMK A01 T00311045  RH  057%=      5-min Rain = 0
KST4 131545Z 30008KT 04/M04 A30 RMK A01 T00351044  RH  056%=      5-min Rain = 0
KST4 131546Z 30009KT 04/M04 A30 RMK A01 T00381043  RH  055%=      5-min Rain = 0
KST4 131547Z 30009KT 04/M04 A30 RMK A01 T00411043  RH  054%=      5-min Rain = 0
KST4 131548Z 30009KT 04/M04 A30 RMK A01 T00441042  RH  054%=      5-min Rain = 0
KST4 131549Z 30009KT 05/M04 A30 RMK A01 T00461044  RH  052%=      5-min Rain = 0
KST4 131550Z 30009KT 05/M04 A30 RMK A01 T00491043  RH  051%=      5-min Rain = 0
KST4 131551Z 30009KT 05/M04 A30 RMK A01 T00501044  RH  050%=      5-min Rain = 0
KST4 131552Z 31008KT 05/M04 A3001 RMK A01 T00511044  RH  050%=      5-min Rain = 0
KST4 131553Z 31009KT 05/M04 A3001 RMK A01 T00531041  RH  051%=      5-min Rain = 0
KST4 131554Z 31009KT 06/M04 A3001 RMK A01 T00561041  RH  050%=      5-min Rain = 0
KST4 131555Z 31008KT 06/M04 A3001 RMK A01 T00571043  RH  048%=      5-min Rain = 0
KST4 131556Z 31008KT 06/M04 A3001 RMK A01 T00581042  RH  048%=      5-min Rain = 0
KST4 131557Z 31008KT 06/M04 A3001 RMK A01 T00601040  RH  049%=      5-min Rain = 0
KST4 131558Z 30007KT 06/M04 A3001 RMK A01 T00611040  RH  048%=      5-min Rain = 0
KST4 131559Z 31006KT 06/M04 A3001 RMK A01 T00611039  RH  049%=      5-min Rain = 0
KST4 131600Z 30006KT 06/M04 A3001 RMK A01 T00621039  RH  048%=      5-min Rain = 0
KST4 131601Z 31007KT 06/M04 A3001 RMK A01 T00631038  RH  048%=      5-min Rain = 0
KST4 131602Z 31007KT 06/M04 A3001 RMK A01 T00641041  RH  047%=      5-min Rain = 0
KST4 131603Z 30006KT 07/M04 A3001 RMK A01 T00651042  RH  046%=      5-min Rain = 0
KST4 131604Z 30007KT 07/M04 A3001 RMK A01 T00661040  RH  047%=      5-min Rain = 0
KST4 131605Z 30006KT 07/M04 A3001 RMK A01 T00671039  RH  046%=      5-min Rain = 0
KST4 131606Z 31005KT 07/M04 A3001 RMK A01 T00691039  RH  046%=      5-min Rain = 0
KST4 131607Z 31005KT 07/M04 A3001 RMK A01 T00711038  RH  046%=      5-min Rain = 0
KST4 131608Z 30006KT 07/M04 A3001 RMK A01 T00731036  RH  046%=      5-min Rain = 0
KST4 131609Z 30005KT 08/M04 A3001 RMK A01 T00761035  RH  045%=      5-min Rain = 0
KST4 131610Z 30006KT 08/M04 A3001 RMK A01 T00781037  RH  044%=      5-min Rain = 0
KST4 131611Z 30005KT 08/M04 A3001 RMK A01 T00801037  RH  043%=      5-min Rain = 0
KST4 131612Z 30005KT 08/M04 A30 RMK A01 T00831035  RH  043%=      5-min Rain = 0
KST4 131613Z 30005KT 09/M04 A30 RMK A01 T00861037  RH  042%=      5-min Rain = 0
KST4 131614Z 30006KT 09/M04 A30 RMK A01 T00881039  RH  041%=      5-min Rain = 0
KST4 131615Z 29007KT 09/M04 A3001 RMK A01 T00911037  RH  040%=      5-min Rain = 0
KST4 131616Z 29006KT 09/M04 A3001 RMK A01 T00931038  RH  040%=      5-min Rain = 0
KST4 131617Z 29005KT 10/M04 A3001 RMK A01 T00951037  RH  039%=      5-min Rain = 0
KST4 131618Z 29005KT 10/M03 A3001 RMK A01 T00981033  RH  040%=      5-min Rain = 0
KST4 131619Z 30005KT 10/M03 A3001 RMK A01 T01031030  RH  039%=      5-min Rain = 0
KST4 131620Z 30005KT 11/M04 A3001 RMK A01 T01071035  RH  037%=      5-min Rain = 0
KST4 131621Z 30006KT 11/M04 A3001 RMK A01 T01091039  RH  035%=      5-min Rain = 0
KST4 131622Z 30005KT 11/M04 A3001 RMK A01 T01101042  RH  034%=      5-min Rain = 0
KST4 131623Z 30005KT 11/M04 A3001 RMK A01 T01111043  RH  034%=      5-min Rain = 0
KST4 131624Z 30005KT 11/M04 A3001 RMK A01 T01121041  RH  034%=      5-min Rain = 0
KST4 131625Z 30005KT 12/M04 A3001 RMK A01 T01151040  RH  034%=      5-min Rain = 0
KST4 131626Z 30004KT 12/M04 A3001 RMK A01 T01171038  RH  034%=      5-min Rain = 0
KST4 131627Z 31006KT 12/M04 A3001 RMK A01 T01211035  RH  033%=      5-min Rain = 0
KST4 131628Z 30006KT 13/M04 A30 RMK A01 T01251043  RH  031%=      5-min Rain = 0
KST4 131629Z 30005KT 13/M04 A30 RMK A01 T01271041  RH  031%=      5-min Rain = 0
KST4 131630Z 30006KT 13/M04 A30 RMK A01 T01291038  RH  031%=      5-min Rain = 0
KST4 131631Z 31007KT 13/M04 A30 RMK A01 T01311043  RH  030%=      5-min Rain = 0
KST4 131632Z 31007KT 13/M05 A30 RMK A01 T01321051  RH  028%=      5-min Rain = 0
KST4 131633Z 30006KT 13/M05 A30 RMK A01 T01331050  RH  028%=      5-min Rain = 0
KST4 131634Z 31005KT 13/M04 A30 RMK A01 T01341043  RH  029%=      5-min Rain = 0
KST4 131635Z 32006KT 14/M05 A30 RMK A01 T01361049  RH  027%=      5-min Rain = 0
KST4 131636Z 31005KT 14/M05 A30 RMK A01 T01361047  RH  028%=      5-min Rain = 0
KST4 131637Z 31007KT 14/M05 A30 RMK A01 T01381046  RH  028%=      5-min Rain = 0
KST4 131638Z 31007KT 14/M05 A30 RMK A01 T01401052  RH  026%=      5-min Rain = 0
KST4 131639Z 31006KT 14/M05 A30 RMK A01 T01411051  RH  026%=      5-min Rain = 0
KST4 131640Z 32005KT 14/M05 A30 RMK A01 T01411047  RH  027%=      5-min Rain = 0
KST4 131641Z 31005KT 14/M05 A30 RMK A01 T01421045  RH  027%=      5-min Rain = 0
KST4 131642Z 32006KT 14/M05 A30 RMK A01 T01431045  RH  027%=      5-min Rain = 0
KST4 131643Z 31005KT 14/M05 A30 RMK A01 T01441048  RH  026%=      5-min Rain = 0
KST4 131644Z 32005KT 14/M05 A30 RMK A01 T01441046  RH  026%=      5-min Rain = 0
KST4 131645Z 32006KT 15/M05 A30 RMK A01 T01461052  RH  025%=      5-min Rain = 0
KST4 131646Z 32006KT 15/M05 A30 RMK A01 T01471053  RH  025%=      5-min Rain = 0
KST4 131647Z 32005KT 15/M05 A30 RMK A01 T01491053  RH  024%=      5-min Rain = 0
KST4 131648Z 32008KT 15/M06 A30 RMK A01 T01511055  RH  024%=      5-min Rain = 0
KST4 131649Z 32007KT 15/M06 A30 RMK A01 T01511058  RH  023%=      5-min Rain = 0
KST4 131650Z 32007KT 15/M05 A30 RMK A01 T01521052  RH  024%=      5-min Rain = 0
KST4 131651Z 32007KT 15/M05 A30 RMK A01 T01531054  RH  024%=      5-min Rain = 0
KST4 131652Z 33006KT 15/M05 A2999 RMK A01 T01531054  RH  024%=      5-min Rain = 0
KST4 131653Z 31007KT 15/M05 A2999 RMK A01 T01521052  RH  024%=      5-min Rain = 0
KST4 131654Z 31007KT 15/M06 A2999 RMK A01 T01531056  RH  023%=      5-min Rain = 0
KST4 131655Z 31007KT 15/M06 A2999 RMK A01 T01541059  RH  022%=      5-min Rain = 0
KST4 131656Z 32008KT 15/M06 A2999 RMK A01 T01541059  RH  022%=      5-min Rain = 0
KST4 131657Z 32008KT 15/M06 A2999 RMK A01 T01541062  RH  022%=      5-min Rain = 0
KST4 131658Z 32007KT 15/M06 A2999 RMK A01 T01541061  RH  022%=      5-min Rain = 0
KST4 131659Z 32007KT 16/M06 A2999 RMK A01 T01551058  RH  022%=      5-min Rain = 0
KST4 131700Z 32007KT 16/M06 A2999 RMK A01 T01571057  RH  023%=      5-min Rain = 0
KST4 131701Z 32007KT 16/M06 A2999 RMK A01 T01571063  RH  022%=      5-min Rain = 0
KST4 131702Z 33006KT 16/M06 A2999 RMK A01 T01571058  RH  022%=      5-min Rain = 0
KST4 131703Z 33006KT 16/M06 A2999 RMK A01 T01581060  RH  022%=      5-min Rain = 0
KST4 131704Z 31007KT 16/M06 A2999 RMK A01 T01581058  RH  022%=      5-min Rain = 0
KST4 131705Z 32008KT 16/M06 A2999 RMK A01 T01581062  RH  021%=      5-min Rain = 0
KST4 131706Z 32008KT 16/M06 A2999 RMK A01 T01581063  RH  021%=      5-min Rain = 0
KST4 131707Z 33008KT 16/M06 A2999 RMK A01 T01581063  RH  021%=      5-min Rain = 0
KST4 131708Z 32007KT 16/M06 A2999 RMK A01 T01591060  RH  022%=      5-min Rain = 0
KST4 131709Z 32009KT 16/M06 A2999 RMK A01 T01601064  RH  021%=      5-min Rain = 0
KST4 131710Z 32008KT 16/M07 A2999 RMK A01 T01601067  RH  020%=      5-min Rain = 0
KST4 131711Z 32008KT 16/M06 A2999 RMK A01 T01611062  RH  021%=      5-min Rain = 0
KST4 131712Z 31009KT 16/M07 A2999 RMK A01 T01611065  RH  021%=      5-min Rain = 0
KST4 131713Z 31008KT 16/M07 A2999 RMK A01 T01611069  RH  020%=      5-min Rain = 0
KST4 131714Z 32009KT 16/M07 A2999 RMK A01 T01621069  RH  020%=      5-min Rain = 0
KST4 131715Z 32008KT 16/M07 A2999 RMK A01 T01631074  RH  019%=      5-min Rain = 0
KST4 131716Z 32008KT 16/M07 A2999 RMK A01 T01621071  RH  019%=      5-min Rain = 0
KST4 131717Z 32011KT 16/M07 A2999 RMK A01 T01631070  RH  020%=      5-min Rain = 0
KST4 131718Z 32009KT 16/M07 A2999 RMK A01 T01631071  RH  019%=      5-min Rain = 0
KST4 131719Z 31008KT 16/M07 A2999 RMK A01 T01621070  RH  020%=      5-min Rain = 0
KST4 131720Z 33010KT 16/M07 A2999 RMK A01 T01641071  RH  019%=      5-min Rain = 0
KST4 131721Z 33012KT 16/M09 A2999 RMK A01 T01641085  RH  017%=      5-min Rain = 0
KST4 131722Z 31009KT 16/M09 A2998 RMK A01 T01621090  RH  017%=      5-min Rain = 0
KST4 131723Z 31009KT 16/M09 A2998 RMK A01 T01621090  RH  017%=      5-min Rain = 0
KST4 131724Z 32010KT 16/M08 A2998 RMK A01 T01631078  RH  018%=      5-min Rain = 0
KST4 131725Z 32011KT 16/M08 A2998 RMK A01 T01641081  RH  018%=      5-min Rain = 0
KST4 131726Z 32010KT 16/M09 A2998 RMK A01 T01621085  RH  018%=      5-min Rain = 0
KST4 131727Z 33009KT 16/M08 A2998 RMK A01 T01621078  RH  018%=      5-min Rain = 0
KST4 131728Z 33009KT 16/M08 A2998 RMK A01 T01631075  RH  019%=      5-min Rain = 0
KST4 131729Z 33008KT 16/M07 A2998 RMK A01 T01641073  RH  019%=      5-min Rain = 0
KST4 131730Z 32009KT 16/M08 A2998 RMK A01 T01641077  RH  018%=      5-min Rain = 0
KST4 131731Z 33010KT 16/M08 A2998 RMK A01 T01641082  RH  018%=      5-min Rain = 0
KST4 131732Z 33010KT 16/M08 A2998 RMK A01 T01631083  RH  018%=      5-min Rain = 0
KST4 131733Z 32009KT 16/M09 A2998 RMK A01 T01621085  RH  018%=      5-min Rain = 0
KST4 131734Z 31009KT 16/M08 A2998 RMK A01 T01611081  RH  018%=      5-min Rain = 0
KST4 131735Z 33010KT 16/M08 A2998 RMK A01 T01621082  RH  018%=      5-min Rain = 0
KST4 131736Z 33011KT 16/M08 A2998 RMK A01 T01611082  RH  018%=      5-min Rain = 0
KST4 131737Z 34009KT 16/M09 A2998 RMK A01 T01611085  RH  018%=      5-min Rain = 0
KST4 131738Z 33010KT 16/M08 A2998 RMK A01 T01611080  RH  018%=      5-min Rain = 0
KST4 131739Z 32012KT 16/M08 A2998 RMK A01 T01611077  RH  019%=      5-min Rain = 0
KST4 131740Z 32011KT 16/M08 A2998 RMK A01 T01611077  RH  019%=      5-min Rain = 0
KST4 131741Z 32009KT 16/M07 A2998 RMK A01 T01611074  RH  019%=      5-min Rain = 0
KST4 131742Z 32010KT 16/M07 A2998 RMK A01 T01621068  RH  020%=      5-min Rain = 0
KST4 131743Z 32011KT 16/M07 A2998 RMK A01 T01621074  RH  019%=      5-min Rain = 0
KST4 131744Z 32009KT 16/M08 A2997 RMK A01 T01601077  RH  019%=      5-min Rain = 0
KST4 131745Z 33010KT 16/M07 A2997 RMK A01 T01591073  RH  020%=      5-min Rain = 0
KST4 131746Z 33010KT 16/M07 A2997 RMK A01 T01591069  RH  020%=      5-min Rain = 0
KST4 131747Z 33010KT 16/M07 A2997 RMK A01 T01611068  RH  020%=      5-min Rain = 0
KST4 131748Z 31011KT 16/M07 A2997 RMK A01 T01601070  RH  020%=      5-min Rain = 0
KST4 131749Z 32010KT 16/M07 A2997 RMK A01 T01591069  RH  020%=      5-min Rain = 0
KST4 131750Z 32010KT 16/M06 A2997 RMK A01 T01601064  RH  021%=      5-min Rain = 0
KST4 131751Z 32010KT 16/M06 A2997 RMK A01 T01621064  RH  021%=      5-min Rain = 0
KST4 131752Z 31010KT 16/M06 A2997 RMK A01 T01611064  RH  021%=      5-min Rain = 0
KST4 131753Z 32012KT 16/M06 A2997 RMK A01 T01601064  RH  021%=      5-min Rain = 0
KST4 131754Z 32013KT 16/M07 A2997 RMK A01 T01591069  RH  020%=      5-min Rain = 0
KST4 131755Z 33012KT 16/M07 A2997 RMK A01 T01571070  RH  020%=      5-min Rain = 0
KST4 131756Z 33012KT 16/M07 A2997 RMK A01 T01561068  RH  021%=      5-min Rain = 0
KST4 131757Z 33011KT 16/M07 A2997 RMK A01 T01551067  RH  021%=      5-min Rain = 0
KST4 131758Z 33011KT 16/M06 A2997 RMK A01 T01551062  RH  022%=      5-min Rain = 0
KST4 131759Z 32009KT 16/M06 A2997 RMK A01 T01561061  RH  022%=      5-min Rain = 0
KST4 131800Z 33010KT 16/M06 A2997 RMK A01 T01571059  RH  022%=      5-min Rain = 0
KST4 131801Z 33011KT 16/M06 A2997 RMK A01 T01581058  RH  022%=      5-min Rain = 0
KST4 131802Z 32011KT 16/M06 A2997 RMK A01 T01581056  RH  023%=      5-min Rain = 0
KST4 131803Z 32011KT 16/M06 A2997 RMK A01 T01581057  RH  022%=      5-min Rain = 0
KST4 131804Z 33012KT 16/M06 A2997 RMK A01 T01571057  RH  022%=      5-min Rain = 0
KST4 131805Z 33011KT 16/M06 A2996 RMK A01 T01561057  RH  023%=      5-min Rain = 0
KST4 131806Z 34010KT 16/M06 A2996 RMK A01 T01551057  RH  023%=      5-min Rain = 0
KST4 131807Z 34009KT 16/M05 A2996 RMK A01 T01571053  RH  023%=      5-min Rain = 0
KST4 131808Z 33010KT 16/M05 A2996 RMK A01 T01581053  RH  023%=      5-min Rain = 0
KST4 131809Z 33009KT 16/M05 A2996 RMK A01 T01571053  RH  023%=      5-min Rain = 0
KST4 131810Z 32009G14KT 16/M05 A2996 RMK A01 T01581046  RH  024%=      5-min Rain = 0
KST4 131811Z 32011KT 16/M05 A2996 RMK A01 T01601051  RH  023%=      5-min Rain = 0
KST4 131812Z 34010KT 16/M05 A2996 RMK A01 T01591051  RH  023%=      5-min Rain = 0
KST4 131813Z 33009KT 16/M05 A2996 RMK A01 T01581054  RH  023%=      5-min Rain = 0
KST4 131814Z 32010KT 16/M05 A2996 RMK A01 T01581051  RH  023%=      5-min Rain = 0
KST4 131815Z 32010KT 16/M05 A2996 RMK A01 T01591048  RH  024%=      5-min Rain = 0
KST4 131816Z 32010KT 16/M05 A2996 RMK A01 T01601050  RH  023%=      5-min Rain = 0
KST4 131817Z 33010KT 16/M05 A2995 RMK A01 T01591047  RH  024%=      5-min Rain = 0
KST4 131818Z 33010KT 16/M05 A2995 RMK A01 T01591046  RH  024%=      5-min Rain = 0
KST4 131819Z 32009KT 16/M05 A2995 RMK A01 T01601046  RH  024%=      5-min Rain = 0
KST4 131820Z 31011KT 16/M05 A2995 RMK A01 T01601047  RH  024%=      5-min Rain = 0
KST4 131821Z 32010KT 16/M05 A2995 RMK A01 T01611049  RH  023%=      5-min Rain = 0
KST4 131822Z 32010KT 16/M05 A2995 RMK A01 T01601052  RH  023%=      5-min Rain = 0
KST4 131823Z 32007KT 16/M05 A2995 RMK A01 T01591053  RH  023%=      5-min Rain = 0
KST4 131824Z 33011KT 16/M05 A2995 RMK A01 T01601053  RH  023%=      5-min Rain = 0
KST4 131825Z 32010KT 16/M06 A2995 RMK A01 T01611060  RH  021%=      5-min Rain = 0
KST4 131826Z 34008KT 16/M06 A2995 RMK A01 T01601061  RH  021%=      5-min Rain = 0
KST4 131827Z 34008KT 16/M06 A2995 RMK A01 T01621062  RH  021%=      5-min Rain = 0
KST4 131828Z 33008KT 16/M07 A2995 RMK A01 T01621065  RH  020%=      5-min Rain = 0
KST4 131829Z 33010KT 16/M07 A2995 RMK A01 T01631070  RH  020%=      5-min Rain = 0
KST4 131830Z 33009KT 16/M07 A2995 RMK A01 T01611074  RH  019%=      5-min Rain = 0
KST4 131831Z 33009KT 16/M07 A2995 RMK A01 T01601070  RH  020%=      5-min Rain = 0
KST4 131832Z 34008KT 16/M07 A2995 RMK A01 T01621073  RH  019%=      5-min Rain = 0
KST4 131833Z 32009KT 16/M07 A2994 RMK A01 T01621072  RH  019%=      5-min Rain = 0
KST4 131834Z 33010KT 16/M07 A2994 RMK A01 T01621070  RH  020%=      5-min Rain = 0
KST4 131835Z 33009KT 16/M07 A2994 RMK A01 T01631067  RH  020%=      5-min Rain = 0
KST4 131836Z 35009KT 16/M07 A2994 RMK A01 T01641070  RH  019%=      5-min Rain = 0
KST4 131837Z 33010KT 17/M06 A2994 RMK A01 T01661064  RH  020%=      5-min Rain = 0
KST4 131838Z 33008KT 17/M07 A2994 RMK A01 T01661065  RH  020%=      5-min Rain = 0
KST4 131839Z 33009KT 17/M06 A2994 RMK A01 T01661062  RH  020%=      5-min Rain = 0
KST4 131840Z 33011KT 17/M06 A2994 RMK A01 T01681060  RH  020%=      5-min Rain = 0
KST4 131841Z 33009KT 17/M06 A2994 RMK A01 T01671061  RH  020%=      5-min Rain = 0
KST4 131842Z 34010KT 17/M06 A2994 RMK A01 T01651061  RH  021%=      5-min Rain = 0
KST4 131843Z 35010KT 17/M06 A2994 RMK A01 T01661059  RH  021%=      5-min Rain = 0
KST4 131844Z 35009KT 17/M06 A2994 RMK A01 T01661061  RH  021%=      5-min Rain = 0
KST4 131845Z 34011KT 17/M06 A2994 RMK A01 T01671057  RH  021%=      5-min Rain = 0
KST4 131846Z 34012KT 17/M06 A2994 RMK A01 T01681060  RH  020%=      5-min Rain = 0
KST4 131847Z 34011KT 17/M07 A2994 RMK A01 T01671065  RH  020%=      5-min Rain = 0
KST4 131848Z 34011KT 17/M07 A2994 RMK A01 T01661065  RH  020%=      5-min Rain = 0
KST4 131849Z 32008KT 17/M06 A2994 RMK A01 T01661063  RH  020%=      5-min Rain = 0
KST4 131850Z 33009KT 17/M06 A2994 RMK A01 T01671062  RH  020%=      5-min Rain = 0
KST4 131851Z 32010KT 17/M06 A2993 RMK A01 T01681062  RH  020%=      5-min Rain = 0
KST4 131852Z 33011KT 17/M06 A2993 RMK A01 T01671061  RH  020%=      5-min Rain = 0
KST4 131853Z 34010KT 17/M06 A2993 RMK A01 T01681060  RH  020%=      5-min Rain = 0
KST4 131854Z 35009KT 17/M06 A2993 RMK A01 T01691063  RH  020%=      5-min Rain = 0
KST4 131855Z 35008KT 17/M07 A2993 RMK A01 T01701071  RH  019%=      5-min Rain = 0
KST4 131856Z 34009KT 17/M07 A2993 RMK A01 T01681074  RH  018%=      5-min Rain = 0
KST4 131857Z 32010KT 17/M07 A2993 RMK A01 T01691068  RH  019%=      5-min Rain = 0
KST4 131858Z 32010KT 17/M06 A2993 RMK A01 T01691064  RH  020%=      5-min Rain = 0
KST4 131859Z 33011KT 17/M07 A2993 RMK A01 T01691066  RH  020%=      5-min Rain = 0
KST4 131900Z 33009KT 17/M06 A2993 RMK A01 T01671064  RH  020%=      5-min Rain = 0
KST4 131901Z 32008KT 17/M07 A2993 RMK A01 T01681065  RH  020%=      5-min Rain = 0
KST4 131902Z 32010KT 17/M07 A2993 RMK A01 T01671068  RH  019%=      5-min Rain = 0
KST4 131903Z 33012KT 17/M07 A2993 RMK A01 T01671070  RH  019%=      5-min Rain = 0
KST4 131904Z 33011KT 17/M06 A2993 RMK A01 T01671060  RH  021%=      5-min Rain = 0
KST4 131905Z 33009KT 17/M06 A2992 RMK A01 T01681059  RH  021%=      5-min Rain = 0
KST4 131906Z 33008KT 17/M06 A2992 RMK A01 T01691059  RH  021%=      5-min Rain = 0
KST4 131907Z 32009KT 17/M06 A2992 RMK A01 T01711063  RH  020%=      5-min Rain = 0
KST4 131908Z 33009KT 17/M06 A2992 RMK A01 T01721059  RH  020%=      5-min Rain = 0
KST4 131909Z 33011KT 17/M07 A2992 RMK A01 T01731074  RH  018%=      5-min Rain = 0
KST4 131910Z 34009KT 17/M08 A2992 RMK A01 T01721075  RH  018%=      5-min Rain = 0
KST4 131911Z 34009KT 17/M07 A2992 RMK A01 T01721066  RH  019%=      5-min Rain = 0
KST4 131912Z 34009KT 17/M06 A2992 RMK A01 T01731064  RH  019%=      5-min Rain = 0
KST4 131913Z 32010KT 17/M06 A2992 RMK A01 T01741062  RH  019%=      5-min Rain = 0
KST4 131914Z 34009KT 17/M06 A2992 RMK A01 T01741062  RH  019%=      5-min Rain = 0
KST4 131915Z 34011KT 17/M07 A2992 RMK A01 T01731065  RH  019%=      5-min Rain = 0
KST4 131916Z 33009KT 17/M07 A2992 RMK A01 T01691073  RH  018%=      5-min Rain = 0
KST4 131917Z 33010KT 17/M07 A2992 RMK A01 T01681070  RH  019%=      5-min Rain = 0
KST4 131918Z 34012KT 17/M07 A2992 RMK A01 T01681071  RH  019%=      5-min Rain = 0
KST4 131919Z 34011KT 17/M07 A2991 RMK A01 T01681071  RH  019%=      5-min Rain = 0
KST4 131920Z 34010KT 17/M07 A2991 RMK A01 T01681069  RH  019%=      5-min Rain = 0
KST4 131921Z 34010KT 17/M07 A2991 RMK A01 T01681066  RH  020%=      5-min Rain = 0
KST4 131922Z 34010KT 17/M06 A2991 RMK A01 T01691063  RH  020%=      5-min Rain = 0
KST4 131923Z 34008KT 17/M06 A2991 RMK A01 T01701060  RH  020%=      5-min Rain = 0
KST4 131924Z 33010KT 17/M06 A2991 RMK A01 T01731062  RH  020%=      5-min Rain = 0
KST4 131925Z 34009KT 17/M07 A2991 RMK A01 T01741065  RH  019%=      5-min Rain = 0
KST4 131926Z 35010KT 17/M07 A2991 RMK A01 T01741068  RH  019%=      5-min Rain = 0
KST4 131927Z 34011KT 17/M06 A2991 RMK A01 T01711063  RH  020%=      5-min Rain = 0
KST4 131928Z 34009KT 17/M07 A2991 RMK A01 T01691065  RH  020%=      5-min Rain = 0
KST4 131929Z 35010KT 17/M07 A2991 RMK A01 T01681067  RH  019%=      5-min Rain = 0
KST4 131930Z 34010KT 17/M07 A2991 RMK A01 T01661070  RH  019%=      5-min Rain = 0
KST4 131931Z 34009KT 17/M07 A2991 RMK A01 T01651069  RH  019%=      5-min Rain = 0
KST4 131932Z 32010KT 17/M07 A2991 RMK A01 T01651067  RH  020%=      5-min Rain = 0
KST4 131933Z 33010KT 17/M07 A2991 RMK A01 T01651067  RH  020%=      5-min Rain = 0
KST4 131934Z 33010KT 17/M07 A2991 RMK A01 T01651066  RH  020%=      5-min Rain = 0
KST4 131935Z 34008KT 16/M07 A2991 RMK A01 T01641068  RH  020%=      5-min Rain = 0
KST4 131936Z 33010KT 16/M06 A299 RMK A01 T01641063  RH  021%=      5-min Rain = 0
KST4 131937Z 34008KT 16/M06 A299 RMK A01 T01641061  RH  021%=      5-min Rain = 0
KST4 131938Z 34008KT 16/M06 A299 RMK A01 T01641057  RH  021%=      5-min Rain = 0
KST4 131939Z 34007KT 16/M06 A299 RMK A01 T01641055  RH  022%=      5-min Rain = 0
KST4 131940Z 33008KT 17/M06 A299 RMK A01 T01651056  RH  021%=      5-min Rain = 0
KST4 131941Z 33009KT 17/M06 A299 RMK A01 T01651059  RH  021%=      5-min Rain = 0
KST4 131942Z 33010KT 17/M06 A299 RMK A01 T01651058  RH  021%=      5-min Rain = 0
KST4 131943Z 34009KT 16/M06 A299 RMK A01 T01641062  RH  021%=      5-min Rain = 0
KST4 131944Z 33009KT 16/M06 A299 RMK A01 T01631063  RH  021%=      5-min Rain = 0
KST4 131945Z 34009KT 16/M06 A299 RMK A01 T01631062  RH  021%=      5-min Rain = 0
KST4 131946Z 34009KT 16/M06 A299 RMK A01 T01641059  RH  021%=      5-min Rain = 0
KST4 131947Z 34008KT 16/M06 A299 RMK A01 T01641058  RH  021%=      5-min Rain = 0
KST4 131948Z 34009KT 17/M06 A299 RMK A01 T01651057  RH  021%=      5-min Rain = 0
KST4 131949Z 33010KT 17/M06 A299 RMK A01 T01651057  RH  021%=      5-min Rain = 0
KST4 131950Z 33009KT 17/M05 A299 RMK A01 T01671053  RH  022%=      5-min Rain = 0
KST4 131951Z 33007KT 17/M05 A299 RMK A01 T01681052  RH  022%=      5-min Rain = 0
KST4 131952Z 34009KT 17/M05 A299 RMK A01 T01691051  RH  022%=      5-min Rain = 0
KST4 131953Z 34010KT 17/M05 A299 RMK A01 T01691053  RH  021%=      5-min Rain = 0
KST4 131954Z 34008KT 17/M05 A299 RMK A01 T01681049  RH  022%=      5-min Rain = 0
KST4 131955Z 35010KT 17/M05 A299 RMK A01 T01681054  RH  021%=      5-min Rain = 0
KST4 131956Z 35009KT 17/M06 A299 RMK A01 T01671063  RH  020%=      5-min Rain = 0
KST4 131957Z 34010KT 17/M06 A299 RMK A01 T01661058  RH  021%=      5-min Rain = 0
KST4 131958Z 01008KT 17/M06 A299 RMK A01 T01651060  RH  021%=      5-min Rain = 0
KST4 131959Z 35008KT 16/M06 A299 RMK A01 T01641059  RH  021%=      5-min Rain = 0
KST4 132000Z 35008KT 17/M06 A299 RMK A01 T01651057  RH  021%=      5-min Rain = 0
KST4 132001Z 35010KT 17/M06 A299 RMK A01 T01651058  RH  021%=      5-min Rain = 0
KST4 132002Z 36009KT 17/M06 A299 RMK A01 T01661058  RH  021%=      5-min Rain = 0
KST4 132003Z 34008KT 17/M05 A299 RMK A01 T01661051  RH  022%=      5-min Rain = 0
KST4 132004Z 34010KT 17/M06 A299 RMK A01 T01671057  RH  021%=      5-min Rain = 0
KST4 132005Z 35008KT 17/M06 A299 RMK A01 T01661060  RH  021%=      5-min Rain = 0
KST4 132006Z 35008KT 17/M06 A2989 RMK A01 T01661056  RH  021%=      5-min Rain = 0
KST4 132007Z 35007KT 17/M05 A2989 RMK A01 T01671053  RH  022%=      5-min Rain = 0
KST4 132008Z 35009KT 17/M06 A2989 RMK A01 T01681056  RH  021%=      5-min Rain = 0
KST4 132009Z 00010KT 17/M06 A2989 RMK A01 T01681057  RH  021%=      5-min Rain = 0
KST4 132010Z 35008KT 17/M06 A2989 RMK A01 T01681063  RH  020%=      5-min Rain = 0
KST4 132011Z 00008KT 17/M06 A2989 RMK A01 T01691056  RH  021%=      5-min Rain = 0
KST4 132012Z 01010KT 17/M06 A2989 RMK A01 T01721058  RH  020%=      5-min Rain = 0
KST4 132013Z 02012KT 17/M06 A2989 RMK A01 T01711062  RH  020%=      5-min Rain = 0
KST4 132014Z 01011KT 17/M07 A2989 RMK A01 T01691066  RH  019%=      5-min Rain = 0
KST4 132015Z 00008KT 17/M06 A2989 RMK A01 T01671058  RH  021%=      5-min Rain = 0
KST4 132016Z 01011KT 17/M05 A2989 RMK A01 T01671053  RH  022%=      5-min Rain = 0
KST4 132017Z 01010KT 17/M05 A2989 RMK A01 T01671051  RH  022%=      5-min Rain = 0
KST4 132018Z 01009KT 17/M05 A2989 RMK A01 T01661054  RH  022%=      5-min Rain = 0
KST4 132019Z 02009KT 16/M06 A2989 RMK A01 T01641056  RH  022%=      5-min Rain = 0
KST4 132020Z 02009KT 16/M06 A2989 RMK A01 T01631055  RH  022%=      5-min Rain = 0
KST4 132021Z 01008KT 16/M06 A2989 RMK A01 T01631055  RH  022%=      5-min Rain = 0
KST4 132022Z 00008KT 16/M05 A2989 RMK A01 T01621051  RH  023%=      5-min Rain = 0
KST4 132023Z 00008KT 16/M05 A2989 RMK A01 T01621050  RH  023%=      5-min Rain = 0
KST4 132024Z 00008KT 16/M05 A2989 RMK A01 T01621051  RH  023%=      5-min Rain = 0
KST4 132025Z 01009KT 16/M05 A2989 RMK A01 T01611046  RH  024%=      5-min Rain = 0
KST4 132026Z 01009KT 16/M05 A2989 RMK A01 T01611046  RH  024%=      5-min Rain = 0
KST4 132027Z 00009KT 16/M05 A2989 RMK A01 T01601046  RH  024%=      5-min Rain = 0
KST4 132028Z 00009KT 16/M05 A2989 RMK A01 T01601051  RH  023%=      5-min Rain = 0
KST4 132029Z 01008KT 16/M05 A2989 RMK A01 T01601052  RH  023%=      5-min Rain = 0
KST4 132030Z 00010KT 16/M05 A2989 RMK A01 T01621047  RH  023%=      5-min Rain = 0
KST4 132031Z 00010KT 16/M06 A2989 RMK A01 T01631058  RH  021%=      5-min Rain = 0
KST4 132032Z 01008KT 16/M06 A2989 RMK A01 T01631057  RH  022%=      5-min Rain = 0
KST4 132033Z 01009KT 16/M05 A2989 RMK A01 T01641054  RH  022%=      5-min Rain = 0
KST4 132034Z 01008KT 16/M06 A2989 RMK A01 T01641060  RH  021%=      5-min Rain = 0
KST4 132035Z 01007KT 16/M05 A2989 RMK A01 T01641054  RH  022%=      5-min Rain = 0
KST4 132036Z 01008KT 17/M05 A2989 RMK A01 T01651048  RH  023%=      5-min Rain = 0
KST4 132037Z 01009KT 17/M05 A2989 RMK A01 T01671049  RH  022%=      5-min Rain = 0
KST4 132038Z 35008KT 17/M05 A2989 RMK A01 T01671050  RH  022%=      5-min Rain = 0
KST4 132039Z 35009KT 17/M05 A2989 RMK A01 T01671050  RH  022%=      5-min Rain = 0
KST4 132040Z 36008KT 17/M06 A2989 RMK A01 T01651058  RH  021%=      5-min Rain = 0
KST4 132041Z 00008KT 16/M07 A2989 RMK A01 T01631066  RH  020%=      5-min Rain = 0
KST4 132042Z 01009KT 16/M07 A2989 RMK A01 T01621072  RH  019%=      5-min Rain = 0
KST4 132043Z 36010KT 16/M07 A2989 RMK A01 T01601065  RH  021%=      5-min Rain = 0
KST4 132044Z 35008KT 16/M06 A2989 RMK A01 T01591055  RH  023%=      5-min Rain = 0
KST4 132045Z 36006KT 16/M05 A2989 RMK A01 T01591045  RH  024%=      5-min Rain = 0
KST4 132046Z 36010KT 16/M04 A2989 RMK A01 T01601042  RH  025%=      5-min Rain = 0
KST4 132047Z 00009KT 16/M05 A2989 RMK A01 T01621046  RH  024%=      5-min Rain = 0
KST4 132048Z 00009KT 16/M05 A2989 RMK A01 T01621049  RH  023%=      5-min Rain = 0
KST4 132049Z 00009KT 16/M05 A2989 RMK A01 T01631050  RH  023%=      5-min Rain = 0
KST4 132050Z 00008KT 16/M05 A2989 RMK A01 T01621051  RH  023%=      5-min Rain = 0
KST4 132051Z 36008KT 16/M05 A2989 RMK A01 T01621050  RH  023%=      5-min Rain = 0
KST4 132052Z 00009KT 16/M05 A2989 RMK A01 T01631049  RH  023%=      5-min Rain = 0
KST4 132053Z 01009KT 16/M05 A2989 RMK A01 T01621047  RH  023%=      5-min Rain = 0
KST4 132054Z 36009KT 16/M05 A2989 RMK A01 T01631045  RH  024%=      5-min Rain = 0
KST4 132055Z 36010KT 16/M04 A2989 RMK A01 T01631042  RH  024%=      5-min Rain = 0
KST4 132056Z 36008KT 16/M04 A2989 RMK A01 T01641041  RH  024%=      5-min Rain = 0
KST4 132057Z 01009KT 17/M04 A2989 RMK A01 T01651041  RH  024%=      5-min Rain = 0
KST4 132058Z 00010KT 16/M04 A2989 RMK A01 T01631043  RH  024%=      5-min Rain = 0
KST4 132059Z 36009KT 16/M04 A2989 RMK A01 T01621043  RH  024%=      5-min Rain = 0
KST4 132100Z 36010KT 16/M04 A2989 RMK A01 T01621041  RH  025%=      5-min Rain = 0
KST4 132101Z 00010KT 16/M04 A2989 RMK A01 T01631042  RH  024%=      5-min Rain = 0
KST4 132102Z 36011KT 16/M05 A2989 RMK A01 T01621046  RH  024%=      5-min Rain = 0
KST4 132103Z 36009KT 16/M05 A2989 RMK A01 T01611046  RH  024%=      5-min Rain = 0
KST4 132104Z 35011KT 16/M05 A2989 RMK A01 T01621046  RH  024%=      5-min Rain = 0
KST4 132105Z 00011KT 16/M05 A2989 RMK A01 T01621054  RH  022%=      5-min Rain = 0
KST4 132106Z 36010KT 16/M06 A2989 RMK A01 T01611056  RH  022%=      5-min Rain = 0
KST4 132107Z 36010KT 16/M06 A2989 RMK A01 T01611059  RH  022%=      5-min Rain = 0
KST4 132108Z 00008KT 16/M06 A2989 RMK A01 T01601056  RH  022%=      5-min Rain = 0
KST4 132109Z 01008KT 16/M05 A2989 RMK A01 T01611050  RH  023%=      5-min Rain = 0
KST4 132110Z 01009KT 16/M05 A2988 RMK A01 T01621054  RH  022%=      5-min Rain = 0
KST4 132111Z 00009KT 16/M05 A2988 RMK A01 T01621053  RH  023%=      5-min Rain = 0
KST4 132112Z 00009KT 16/M05 A2988 RMK A01 T01631052  RH  023%=      5-min Rain = 0
KST4 132113Z 00009KT 16/M05 A2989 RMK A01 T01631053  RH  022%=      5-min Rain = 0
KST4 132114Z 36009KT 16/M05 A2989 RMK A01 T01621054  RH  022%=      5-min Rain = 0
KST4 132115Z 35010KT 16/M06 A2989 RMK A01 T01621055  RH  022%=      5-min Rain = 0
KST4 132116Z 35009KT 16/M06 A2989 RMK A01 T01631058  RH  021%=      5-min Rain = 0
KST4 132117Z 36007KT 16/M05 A2989 RMK A01 T01641054  RH  022%=      5-min Rain = 0
KST4 132118Z 00008KT 17/M05 A2989 RMK A01 T01671046  RH  023%=      5-min Rain = 0
KST4 132119Z 00011KT 17/M05 A2989 RMK A01 T01691048  RH  022%=      5-min Rain = 0
KST4 132120Z 00009KT 17/M05 A2989 RMK A01 T01671053  RH  022%=      5-min Rain = 0
KST4 132121Z 01008KT 17/M05 A2988 RMK A01 T01651052  RH  022%=      5-min Rain = 0
KST4 132122Z 01008KT 17/M05 A2988 RMK A01 T01651049  RH  023%=      5-min Rain = 0
KST4 132123Z 01008KT 17/M05 A2988 RMK A01 T01651052  RH  022%=      5-min Rain = 0
KST4 132124Z 01009KT 16/M05 A2988 RMK A01 T01641052  RH  022%=      5-min Rain = 0
KST4 132125Z 01009KT 16/M05 A2988 RMK A01 T01641050  RH  023%=      5-min Rain = 0
KST4 132126Z 01008KT 17/M05 A2988 RMK A01 T01651051  RH  022%=      5-min Rain = 0
KST4 132127Z 35009KT 17/M06 A2988 RMK A01 T01651055  RH  022%=      5-min Rain = 0
KST4 132128Z 35008KT 17/M06 A2988 RMK A01 T01671056  RH  021%=      5-min Rain = 0
KST4 132129Z 01008KT 17/M05 A2988 RMK A01 T01691052  RH  022%=      5-min Rain = 0
KST4 132130Z 01007KT 17/M05 A2988 RMK A01 T01691049  RH  022%=      5-min Rain = 0
KST4 132131Z 36006KT 17/M05 A2988 RMK A01 T01711050  RH  022%=      5-min Rain = 0
KST4 132132Z 34007KT 17/M06 A2988 RMK A01 T01711055  RH  021%=      5-min Rain = 0
KST4 132133Z 35007KT 17/M05 A2988 RMK A01 T01701053  RH  021%=      5-min Rain = 0
KST4 132134Z 00009KT 17/M05 A2988 RMK A01 T01701052  RH  021%=      5-min Rain = 0
KST4 132135Z 35009KT 17/M06 A2988 RMK A01 T01681056  RH  021%=      5-min Rain = 0
KST4 132136Z 35007KT 17/M06 A2988 RMK A01 T01651057  RH  021%=      5-min Rain = 0
KST4 132137Z 00009KT 16/M05 A2988 RMK A01 T01641052  RH  022%=      5-min Rain = 0
KST4 132138Z 00008KT 16/M05 A2988 RMK A01 T01641047  RH  023%=      5-min Rain = 0
KST4 132139Z 00008KT 17/M04 A2988 RMK A01 T01651043  RH  024%=      5-min Rain = 0
KST4 132140Z 00009KT 16/M04 A2988 RMK A01 T01641044  RH  024%=      5-min Rain = 0
KST4 132141Z 01009KT 16/M05 A2988 RMK A01 T01641045  RH  024%=      5-min Rain = 0
KST4 132142Z 01007KT 16/M05 A2988 RMK A01 T01621046  RH  024%=      5-min Rain = 0
KST4 132143Z 01009KT 16/M04 A2988 RMK A01 T01611043  RH  024%=      5-min Rain = 0
KST4 132144Z 00008KT 16/M05 A2988 RMK A01 T01601045  RH  024%=      5-min Rain = 0
KST4 132145Z 01007KT 16/M05 A2988 RMK A01 T01601050  RH  023%=      5-min Rain = 0
KST4 132146Z 01008KT 16/M05 A2988 RMK A01 T01601049  RH  023%=      5-min Rain = 0
KST4 132147Z 01008KT 16/M05 A2988 RMK A01 T01601046  RH  024%=      5-min Rain = 0
KST4 132148Z 01007KT 16/M05 A2987 RMK A01 T01601048  RH  023%=      5-min Rain = 0
KST4 132149Z 01008KT 16/M05 A2987 RMK A01 T01601046  RH  024%=      5-min Rain = 0
KST4 132150Z 01008KT 16/M05 A2987 RMK A01 T01601046  RH  024%=      5-min Rain = 0
KST4 132151Z 02007KT 16/M05 A2987 RMK A01 T01611045  RH  024%=      5-min Rain = 0
KST4 132152Z 02009KT 16/M04 A2987 RMK A01 T01611044  RH  024%=      5-min Rain = 0
KST4 132153Z 01009KT 16/M05 A2987 RMK A01 T01621045  RH  024%=      5-min Rain = 0
KST4 132154Z 02008KT 16/M05 A2987 RMK A01 T01621046  RH  024%=      5-min Rain = 0
KST4 132155Z 02006KT 16/M05 A2987 RMK A01 T01621045  RH  024%=      5-min Rain = 0
KST4 132156Z 02006KT 16/M04 A2987 RMK A01 T01621042  RH  024%=      5-min Rain = 0
KST4 132157Z 02005KT 16/M04 A2987 RMK A01 T01631039  RH  025%=      5-min Rain = 0
KST4 132158Z 02007KT 17/M04 A2987 RMK A01 T01651040  RH  024%=      5-min Rain = 0
KST4 132159Z 02008KT 16/M05 A2987 RMK A01 T01641045  RH  024%=      5-min Rain = 0
KST4 132200Z 01007KT 16/M05 A2987 RMK A01 T01621049  RH  023%=      5-min Rain = 0
KST4 132201Z 01005KT 16/M05 A2987 RMK A01 T01601048  RH  023%=      5-min Rain = 0
KST4 132202Z 01007KT 16/M05 A2988 RMK A01 T01601045  RH  024%=      5-min Rain = 0
KST4 132203Z 01007KT 16/M05 A2988 RMK A01 T01601047  RH  024%=      5-min Rain = 0
KST4 132204Z 01006KT 16/M05 A2988 RMK A01 T01611048  RH  024%=      5-min Rain = 0
KST4 132205Z 00008KT 16/M05 A2988 RMK A01 T01611048  RH  024%=      5-min Rain = 0
KST4 132206Z 36007KT 16/M05 A2988 RMK A01 T01621050  RH  023%=      5-min Rain = 0
KST4 132207Z 02007KT 16/M04 A2988 RMK A01 T01621042  RH  024%=      5-min Rain = 0
KST4 132208Z 02006KT 16/M04 A2988 RMK A01 T01621041  RH  024%=      5-min Rain = 0
KST4 132209Z 01006KT 16/M04 A2988 RMK A01 T01621038  RH  025%=      5-min Rain = 0
KST4 132210Z 01006KT 16/M04 A2988 RMK A01 T01631039  RH  025%=      5-min Rain = 0
KST4 132211Z 03007KT 16/M04 A2988 RMK A01 T01631042  RH  024%=      5-min Rain = 0
KST4 132212Z 02006KT 16/M05 A2988 RMK A01 T01621046  RH  024%=      5-min Rain = 0
KST4 132213Z 01006KT 16/M04 A2988 RMK A01 T01621042  RH  024%=      5-min Rain = 0
KST4 132214Z 02008KT 16/M04 A2988 RMK A01 T01631039  RH  025%=      5-min Rain = 0
KST4 132215Z 01007KT 16/M04 A2988 RMK A01 T01621038  RH  025%=      5-min Rain = 0
KST4 132216Z 02005KT 16/M03 A2988 RMK A01 T01611032  RH  026%=      5-min Rain = 0
KST4 132217Z 03006KT 16/M03 A2988 RMK A01 T01611031  RH  027%=      5-min Rain = 0
KST4 132218Z 03006KT 16/M03 A2988 RMK A01 T01601032  RH  026%=      5-min Rain = 0
KST4 132219Z 01008KT 16/M03 A2988 RMK A01 T01601033  RH  026%=      5-min Rain = 0
KST4 132220Z 02007KT 16/M04 A2988 RMK A01 T01601037  RH  026%=      5-min Rain = 0
KST4 132221Z 02007KT 16/M04 A2988 RMK A01 T01591037  RH  026%=      5-min Rain = 0
KST4 132222Z 02007KT 16/M04 A2988 RMK A01 T01581036  RH  026%=      5-min Rain = 0
KST4 132223Z 02007KT 16/M04 A2988 RMK A01 T01581037  RH  026%=      5-min Rain = 0
KST4 132224Z 02007KT 16/M04 A2988 RMK A01 T01581037  RH  026%=      5-min Rain = 0
KST4 132225Z 02006KT 16/M04 A2988 RMK A01 T01571038  RH  026%=      5-min Rain = 0
KST4 132226Z 02007KT 16/M04 A2988 RMK A01 T01571038  RH  026%=      5-min Rain = 0
KST4 132227Z 02006KT 16/M04 A2988 RMK A01 T01571038  RH  026%=      5-min Rain = 0
KST4 132228Z 02007KT 16/M04 A2988 RMK A01 T01571038  RH  026%=      5-min Rain = 0
KST4 132229Z 02007KT 16/M04 A2988 RMK A01 T01561040  RH  026%=      5-min Rain = 0
KST4 132230Z 01006KT 16/M04 A2988 RMK A01 T01561039  RH  026%=      5-min Rain = 0
KST4 132231Z 02007KT 16/M04 A2988 RMK A01 T01561037  RH  026%=      5-min Rain = 0
KST4 132232Z 02006KT 16/M03 A2987 RMK A01 T01561034  RH  027%=      5-min Rain = 0
KST4 132233Z 02006KT 16/M03 A2987 RMK A01 T01561034  RH  027%=      5-min Rain = 0
KST4 132234Z 02006KT 16/M04 A2987 RMK A01 T01561036  RH  027%=      5-min Rain = 0
KST4 132235Z 02006KT 16/M04 A2987 RMK A01 T01561037  RH  026%=      5-min Rain = 0
KST4 132236Z 03005KT 16/M04 A2987 RMK A01 T01561039  RH  026%=      5-min Rain = 0
KST4 132237Z 03005KT 16/M04 A2987 RMK A01 T01551037  RH  026%=      5-min Rain = 0
KST4 132238Z 04005KT 16/M04 A2987 RMK A01 T01551036  RH  027%=      5-min Rain = 0
KST4 132239Z 04004KT 15/M04 A2986 RMK A01 T01541039  RH  026%=      5-min Rain = 0
KST4 132240Z 04005KT 15/M04 A2986 RMK A01 T01541039  RH  026%=      5-min Rain = 0
KST4 132241Z 04005KT 15/M04 A2986 RMK A01 T01531040  RH  026%=      5-min Rain = 0
KST4 132242Z 05004KT 15/M04 A2986 RMK A01 T01531039  RH  026%=      5-min Rain = 0
KST4 132243Z 05005KT 15/M04 A2986 RMK A01 T01521036  RH  027%=      5-min Rain = 0
KST4 132244Z 05005KT 15/M04 A2986 RMK A01 T01511037  RH  027%=      5-min Rain = 0
KST4 132245Z 06005KT 15/M04 A2986 RMK A01 T01501035  RH  028%=      5-min Rain = 0
KST4 132246Z 05005KT 15/M03 A2986 RMK A01 T01481034  RH  028%=      5-min Rain = 0
KST4 132247Z 06005KT 15/M04 A2986 RMK A01 T01471035  RH  028%=      5-min Rain = 0
KST4 132248Z 06005KT 15/M03 A2986 RMK A01 T01461033  RH  029%=      5-min Rain = 0
KST4 132249Z 06006KT 15/M03 A2985 RMK A01 T01451033  RH  029%=      5-min Rain = 0
KST4 132250Z 07006KT 14/M03 A2985 RMK A01 T01431032  RH  030%=      5-min Rain = 0
KST4 132251Z 07006KT 14/M03 A2985 RMK A01 T01421032  RH  030%=      5-min Rain = 0
KST4 132252Z 07006KT 14/M03 A2985 RMK A01 T01411030  RH  031%=      5-min Rain = 0
KST4 132253Z 08006KT 14/M03 A2985 RMK A01 T01391029  RH  031%=      5-min Rain = 0
KST4 132254Z 08006KT 14/M03 A2985 RMK A01 T01371030  RH  031%=      5-min Rain = 0
KST4 132255Z 09005KT 14/M03 A2985 RMK A01 T01361030  RH  032%=      5-min Rain = 0
KST4 132256Z 10004KT 14/M03 A2985 RMK A01 T01351029  RH  032%=      5-min Rain = 0
KST4 132257Z 09004KT 13/M03 A2985 RMK A01 T01341028  RH  032%=      5-min Rain = 0
KST4 132258Z 09004KT 13/M03 A2985 RMK A01 T01341026  RH  033%=      5-min Rain = 0
KST4 132259Z 09004KT 13/M03 A2985 RMK A01 T01331025  RH  033%=      5-min Rain = 0
KST4 132300Z 09003KT 13/M03 A2985 RMK A01 T01321025  RH  034%=      5-min Rain = 0
KST4 132301Z 10003KT 13/M02 A2985 RMK A01 T01311024  RH  034%=      5-min Rain = 0
KST4 132302Z 10003KT 13/M02 A2985 RMK A01 T01301024  RH  034%=      5-min Rain = 0
KST4 132303Z 09003KT 13/M03 A2985 RMK A01 T01301025  RH  034%=      5-min Rain = 0
KST4 132304Z 09003KT 13/M03 A2985 RMK A01 T01291025  RH  034%=      5-min Rain = 0
KST4 132305Z 09004KT 13/M03 A2985 RMK A01 T01291025  RH  034%=      5-min Rain = 0
KST4 132306Z 09004KT 13/M03 A2985 RMK A01 T01281026  RH  034%=      5-min Rain = 0
KST4 132307Z 09004KT 13/M03 A2985 RMK A01 T01281027  RH  034%=      5-min Rain = 0
KST4 132308Z 09004KT 13/M03 A2985 RMK A01 T01281026  RH  034%=      5-min Rain = 0
KST4 132309Z 09003KT 13/M03 A2985 RMK A01 T01281026  RH  034%=      5-min Rain = 0
KST4 132310Z 09003KT 13/M03 A2986 RMK A01 T01281026  RH  034%=      5-min Rain = 0
KST4 132311Z 10004KT 13/M03 A2986 RMK A01 T01281026  RH  034%=      5-min Rain = 0
KST4 132312Z 10003KT 13/M03 A2986 RMK A01 T01271026  RH  034%=      5-min Rain = 0
KST4 132313Z 10003KT 13/M03 A2986 RMK A01 T01271026  RH  034%=      5-min Rain = 0
KST4 132314Z 10004KT 13/M03 A2986 RMK A01 T01271026  RH  034%=      5-min Rain = 0
KST4 132315Z 10004KT 13/M03 A2985 RMK A01 T01271026  RH  034%=      5-min Rain = 0
KST4 132316Z 10004KT 13/M03 A2985 RMK A01 T01271026  RH  034%=      5-min Rain = 0
KST4 132317Z 11003KT 13/M03 A2985 RMK A01 T01271026  RH  034%=      5-min Rain = 0
KST4 132318Z 11004KT 13/M03 A2985 RMK A01 T01271026  RH  035%=      5-min Rain = 0
KST4 132319Z 11004KT 13/M03 A2985 RMK A01 T01271025  RH  035%=      5-min Rain = 0
KST4 132320Z 11004KT 13/M03 A2985 RMK A01 T01271025  RH  035%=      5-min Rain = 0
KST4 132321Z 11004KT 13/M03 A2985 RMK A01 T01271025  RH  035%=      5-min Rain = 0
KST4 132322Z 11004KT 13/M03 A2985 RMK A01 T01271025  RH  035%=      5-min Rain = 0
KST4 132323Z 11004KT 13/M02 A2985 RMK A01 T01271024  RH  035%=      5-min Rain = 0
KST4 132324Z 11004KT 13/M02 A2985 RMK A01 T01261024  RH  035%=      5-min Rain = 0
KST4 132325Z 11004KT 13/M02 A2985 RMK A01 T01251023  RH  036%=      5-min Rain = 0
KST4 132326Z 11004KT 13/M02 A2985 RMK A01 T01251023  RH  036%=      5-min Rain = 0
KST4 132327Z 11003KT 12/M02 A2985 RMK A01 T01241023  RH  036%=      5-min Rain = 0
KST4 132328Z 11003KT 12/M02 A2985 RMK A01 T01241023  RH  036%=      5-min Rain = 0
KST4 132329Z 11003KT 12/M02 A2984 RMK A01 T01231023  RH  036%=      5-min Rain = 0
KST4 132330Z 12004KT 12/M02 A2984 RMK A01 T01221024  RH  036%=      5-min Rain = 0
KST4 132331Z 12004KT 12/M02 A2984 RMK A01 T01221024  RH  036%=      5-min Rain = 0
KST4 132332Z 11004KT 12/M03 A2984 RMK A01 T01211025  RH  036%=      5-min Rain = 0
KST4 132333Z 12003KT 12/M03 A2984 RMK A01 T01211026  RH  036%=      5-min Rain = 0
KST4 132334Z 12003KT 12/M03 A2984 RMK A01 T01211026  RH  036%=      5-min Rain = 0
KST4 132335Z 11003KT 12/M03 A2984 RMK A01 T01211026  RH  036%=      5-min Rain = 0
KST4 132336Z 11002KT 12/M02 A2984 RMK A01 T01191023  RH  037%=      5-min Rain = 0
KST4 132337Z 11002KT 12/M02 A2984 RMK A01 T01181021  RH  038%=      5-min Rain = 0
KST4 132338Z 11002KT 12/M02 A2984 RMK A01 T01181022  RH  038%=      5-min Rain = 0
KST4 132339Z 11003KT 12/M02 A2984 RMK A01 T01171023  RH  038%=      5-min Rain = 0
KST4 132340Z 12003KT 12/M02 A2984 RMK A01 T01171023  RH  037%=      5-min Rain = 0
KST4 132341Z 12003KT 12/M02 A2984 RMK A01 T01171023  RH  037%=      5-min Rain = 0
KST4 132342Z 12002KT 12/M02 A2984 RMK A01 T01171024  RH  037%=      5-min Rain = 0
KST4 132343Z 13002KT 12/M02 A2984 RMK A01 T01171023  RH  037%=      5-min Rain = 0
KST4 132344Z 14002KT 12/M02 A2984 RMK A01 T01171022  RH  038%=      5-min Rain = 0
KST4 132345Z 15002KT 12/M02 A2984 RMK A01 T01171020  RH  038%=      5-min Rain = 0
KST4 132346Z 17001KT 12/M02 A2985 RMK A01 T01161019  RH  039%=      5-min Rain = 0
KST4 132347Z 19001KT 11/M02 A2985 RMK A01 T01141019  RH  039%=      5-min Rain = 0
KST4 132348Z 21001KT 11/M02 A2985 RMK A01 T01111015  RH  041%=      5-min Rain = 0
KST4 132349Z 21002KT 11/M02 A2985 RMK A01 T01051015  RH  043%=      5-min Rain = 0
KST4 132350Z 22002KT 10/M01 A2985 RMK A01 T01001013  RH  045%=      5-min Rain = 0
KST4 132351Z 22002KT 09/M01 A2985 RMK A01 T00931013  RH  048%=      5-min Rain = 0
KST4 132352Z 21002KT 09/M01 A2984 RMK A01 T00881013  RH  049%=      5-min Rain = 0
KST4 132353Z 21003KT 09/M01 A2984 RMK A01 T00851012  RH  051%=      5-min Rain = 0
KST4 132354Z 21003KT 08/M01 A2984 RMK A01 T00831011  RH  051%=      5-min Rain = 0
KST4 132355Z 21002KT 08/M01 A2984 RMK A01 T00831012  RH  051%=      5-min Rain = 0
KST4 132356Z 21002KT 09/M02 A2984 RMK A01 T00851015  RH  049%=      5-min Rain = 0
KST4 132357Z 21002KT 09/M02 A2984 RMK A01 T00891016  RH  048%=      5-min Rain = 0
KST4 132358Z 22001KT 09/M02 A2984 RMK A01 T00921018  RH  046%=      5-min Rain = 0
KST4 132359Z 21001KT 10/M02 A2984 RMK A01 T00951019  RH  045%=      5-min Rain = 0
KST4 140000Z 21001KT 10/M02 A2984 RMK A01 T00961019  RH  044%=      5-min Rain = 0
KST4 140001Z 22002KT 10/M02 A2984 RMK A01 T00961022  RH  044%=      5-min Rain = 0
KST4 140002Z 22002KT 10/M03 A2984 RMK A01 T00961025  RH  043%=      5-min Rain = 0
KST4 140003Z 21002KT 10/M03 A2984 RMK A01 T00991026  RH  041%=      5-min Rain = 0
KST4 140004Z 21002KT 10/M03 A2984 RMK A01 T01021026  RH  041%=      5-min Rain = 0
KST4 140005Z 21002KT 10/M03 A2984 RMK A01 T01031027  RH  040%=      5-min Rain = 0
KST4 140006Z 21002KT 11/M03 A2984 RMK A01 T01051027  RH  039%=      5-min Rain = 0
KST4 140007Z 22002KT 11/M03 A2985 RMK A01 T01051025  RH  040%=      5-min Rain = 0
KST4 140008Z 23003KT 11/M02 A2985 RMK A01 T01051023  RH  041%=      5-min Rain = 0
KST4 140009Z 24003KT 10/M02 A2985 RMK A01 T01021023  RH  041%=      5-min Rain = 0
KST4 140010Z 24003KT 10/M03 A2985 RMK A01 T00981025  RH  042%=      5-min Rain = 0
KST4 140011Z 24003KT 09/M03 A2985 RMK A01 T00921028  RH  043%=      5-min Rain = 0
KST4 140012Z 24003KT 09/M03 A2985 RMK A01 T00871028  RH  044%=      5-min Rain = 0
KST4 140013Z 24003KT 08/M03 A2985 RMK A01 T00831029  RH  045%=      5-min Rain = 0
KST4 140014Z 24003KT 08/M03 A2985 RMK A01 T00801029  RH  046%=      5-min Rain = 0
KST4 140015Z 23003KT 08/M03 A2985 RMK A01 T00781029  RH  047%=      5-min Rain = 0
KST4 140016Z 23003KT 08/M03 A2985 RMK A01 T00771029  RH  047%=      5-min Rain = 0
KST4 140017Z 23003KT 08/M03 A2985 RMK A01 T00811026  RH  047%=      5-min Rain = 0
KST4 140018Z 23003KT 09/M02 A2985 RMK A01 T00871024  RH  046%=      5-min Rain = 0
KST4 140019Z 23003KT 09/M02 A2985 RMK A01 T00911024  RH  044%=      5-min Rain = 0
KST4 140020Z 23003KT 09/M03 A2985 RMK A01 T00921026  RH  043%=      5-min Rain = 0
KST4 140021Z 23003KT 09/M03 A2985 RMK A01 T00921028  RH  043%=      5-min Rain = 0
KST4 140022Z 23003KT 09/M03 A2985 RMK A01 T00931029  RH  042%=      5-min Rain = 0
KST4 140023Z 23003KT 10/M03 A2985 RMK A01 T00951031  RH  041%=      5-min Rain = 0
KST4 140024Z 23002KT 10/M03 A2985 RMK A01 T00981031  RH  040%=      5-min Rain = 0
KST4 140025Z 22003KT 10/M03 A2985 RMK A01 T01001032  RH  039%=      5-min Rain = 0
KST4 140026Z 22003KT 10/M03 A2985 RMK A01 T01011031  RH  040%=      5-min Rain = 0
KST4 140027Z 21003KT 10/M03 A2985 RMK A01 T00991030  RH  040%=      5-min Rain = 0
KST4 140028Z 20003KT 09/M03 A2985 RMK A01 T00941028  RH  042%=      5-min Rain = 0
KST4 140029Z 20004KT 09/M03 A2985 RMK A01 T00891027  RH  044%=      5-min Rain = 0
KST4 140030Z 20004KT 09/M03 A2985 RMK A01 T00851026  RH  045%=      5-min Rain = 0
KST4 140031Z 20004KT 08/M03 A2985 RMK A01 T00821027  RH  046%=      5-min Rain = 0
KST4 140032Z 20004KT 08/M03 A2985 RMK A01 T00801026  RH  047%=      5-min Rain = 0
KST4 140033Z 20004KT 08/M03 A2985 RMK A01 T00771025  RH  048%=      5-min Rain = 0
KST4 140034Z 20004KT 08/M02 A2985 RMK A01 T00751024  RH  049%=      5-min Rain = 0
KST4 140035Z 21004KT 07/M02 A2985 RMK A01 T00731023  RH  050%=      5-min Rain = 0
KST4 140036Z 21004KT 07/M02 A2985 RMK A01 T00701022  RH  052%=      5-min Rain = 0
KST4 140037Z 21004KT 07/M02 A2985 RMK A01 T00671022  RH  053%=      5-min Rain = 0
KST4 140038Z 22005KT 07/M02 A2985 RMK A01 T00661022  RH  053%=      5-min Rain = 0
KST4 140039Z 22005KT 07/M02 A2985 RMK A01 T00661023  RH  053%=      5-min Rain = 0
KST4 140040Z 23005KT 07/M02 A2985 RMK A01 T00661023  RH  053%=      5-min Rain = 0
KST4 140041Z 23005KT 07/M02 A2985 RMK A01 T00651024  RH  053%=      5-min Rain = 0
KST4 140042Z 23005KT 06/M03 A2985 RMK A01 T00641026  RH  053%=      5-min Rain = 0
KST4 140043Z 23005KT 06/M03 A2985 RMK A01 T00641026  RH  053%=      5-min Rain = 0
KST4 140044Z 23006KT 06/M03 A2985 RMK A01 T00641025  RH  053%=      5-min Rain = 0
KST4 140045Z 23006KT 06/M03 A2985 RMK A01 T00641025  RH  053%=      5-min Rain = 0
KST4 140046Z 24006KT 06/M02 A2985 RMK A01 T00621024  RH  054%=      5-min Rain = 0
KST4 140047Z 24006KT 06/M02 A2985 RMK A01 T00611023  RH  055%=      5-min Rain = 0
KST4 140048Z 24006KT 06/M02 A2985 RMK A01 T00591022  RH  056%=      5-min Rain = 0
KST4 140049Z 25006KT 06/M02 A2985 RMK A01 T00571021  RH  057%=      5-min Rain = 0
KST4 140050Z 25006KT 06/M02 A2985 RMK A01 T00551021  RH  058%=      5-min Rain = 0
KST4 140051Z 24006KT 05/M02 A2985 RMK A01 T00541021  RH  059%=      5-min Rain = 0
KST4 140052Z 24006KT 05/M02 A2985 RMK A01 T00531021  RH  059%=      5-min Rain = 0
KST4 140053Z 24006KT 05/M02 A2985 RMK A01 T00531020  RH  059%=      5-min Rain = 0
KST4 140054Z 24006KT 05/M02 A2985 RMK A01 T00521021  RH  060%=      5-min Rain = 0
KST4 140055Z 25006KT 05/M02 A2985 RMK A01 T00521021  RH  059%=      5-min Rain = 0
KST4 140056Z 24007KT 05/M02 A2985 RMK A01 T00521021  RH  059%=      5-min Rain = 0
KST4 140057Z 24007KT 05/M02 A2985 RMK A01 T00511022  RH  060%=      5-min Rain = 0
KST4 140058Z 24007KT 05/M02 A2985 RMK A01 T00491020  RH  061%=      5-min Rain = 0
KST4 140059Z 24008KT 05/M02 A2986 RMK A01 T00461019  RH  063%=      5-min Rain = 0
KST4 140100Z 24008KT 05/M02 A2986 RMK A01 T00451020  RH  063%=      5-min Rain = 0
KST4 140101Z 24009KT 05/M02 A2986 RMK A01 T00451021  RH  062%=      5-min Rain = 0
KST4 140102Z 24008KT 05/M02 A2986 RMK A01 T00451022  RH  062%=      5-min Rain = 0
KST4 140103Z 24008KT 05/M02 A2986 RMK A01 T00451022  RH  062%=      5-min Rain = 0
KST4 140104Z 24008KT 05/M02 A2985 RMK A01 T00461022  RH  062%=      5-min Rain = 0
KST4 140105Z 24008KT 05/M02 A2985 RMK A01 T00461022  RH  062%=      5-min Rain = 0
KST4 140106Z 24008KT 05/M02 A2985 RMK A01 T00461021  RH  062%=      5-min Rain = 0
KST4 140107Z 24007KT 05/M02 A2985 RMK A01 T00461021  RH  062%=      5-min Rain = 0
KST4 140108Z 24007KT 05/M02 A2985 RMK A01 T00461021  RH  062%=      5-min Rain = 0
KST4 140109Z 24007KT 05/M02 A2985 RMK A01 T00461021  RH  062%=      5-min Rain = 0
KST4 140110Z 24007KT 05/M02 A2985 RMK A01 T00461021  RH  062%=      5-min Rain = 0
KST4 140111Z 24007KT 05/M02 A2985 RMK A01 T00461021  RH  062%=      5-min Rain = 0
KST4 140112Z 24007KT 05/M02 A2985 RMK A01 T00461021  RH  062%=      5-min Rain = 0
KST4 140113Z 24007KT 05/M02 A2985 RMK A01 T00461021  RH  062%=      5-min Rain = 0
KST4 140114Z 24007KT 05/M02 A2985 RMK A01 T00461021  RH  062%=      5-min Rain = 0
KST4 140115Z 24007KT 05/M02 A2985 RMK A01 T00451022  RH  062%=      5-min Rain = 0
KST4 140116Z 24007KT 04/M02 A2985 RMK A01 T00441023  RH  062%=      5-min Rain = 0
KST4 140117Z 24007KT 04/M02 A2985 RMK A01 T00431023  RH  062%=      5-min Rain = 0
KST4 140118Z 24007KT 04/M02 A2985 RMK A01 T00421022  RH  063%=      5-min Rain = 0
KST4 140119Z 24007KT 04/M02 A2985 RMK A01 T00421022  RH  063%=      5-min Rain = 0
KST4 140120Z 24007KT 04/M02 A2985 RMK A01 T00411022  RH  064%=      5-min Rain = 0
KST4 140121Z 24007KT 04/M02 A2985 RMK A01 T00411022  RH  064%=      5-min Rain = 0
KST4 140122Z 24007KT 04/M02 A2985 RMK A01 T00401022  RH  064%=      5-min Rain = 0
KST4 140123Z 24007KT 04/M02 A2985 RMK A01 T00401022  RH  064%=      5-min Rain = 0
KST4 140124Z 24007KT 04/M02 A2985 RMK A01 T00401022  RH  064%=      5-min Rain = 0
KST4 140125Z 24007KT 04/M02 A2985 RMK A01 T00401022  RH  064%=      5-min Rain = 0
KST4 140126Z 24007KT 04/M02 A2985 RMK A01 T00401022  RH  064%=      5-min Rain = 0
KST4 140127Z 24007KT 04/M02 A2985 RMK A01 T00401022  RH  064%=      5-min Rain = 0
KST4 140128Z 24007KT 04/M02 A2985 RMK A01 T00401023  RH  063%=      5-min Rain = 0
KST4 140129Z 24007KT 04/M02 A2985 RMK A01 T00401023  RH  063%=      5-min Rain = 0
KST4 140130Z 24007KT 04/M02 A2985 RMK A01 T00411023  RH  063%=      5-min Rain = 0
KST4 140131Z 24007KT 04/M02 A2985 RMK A01 T00421023  RH  063%=      5-min Rain = 0
KST4 140132Z 25007KT 04/M02 A2985 RMK A01 T00421023  RH  062%=      5-min Rain = 0
KST4 140133Z 25006KT 04/M02 A2985 RMK A01 T00431024  RH  062%=      5-min Rain = 0
KST4 140134Z 25006KT 04/M03 A2985 RMK A01 T00441025  RH  061%=      5-min Rain = 0
KST4 140135Z 25006KT 05/M03 A2985 RMK A01 T00451026  RH  060%=      5-min Rain = 0
KST4 140136Z 25007KT 05/M03 A2985 RMK A01 T00471027  RH  059%=      5-min Rain = 0
KST4 140137Z 25007KT 05/M03 A2985 RMK A01 T00491027  RH  058%=      5-min Rain = 0
KST4 140138Z 25007KT 05/M03 A2985 RMK A01 T00501027  RH  057%=      5-min Rain = 0
KST4 140139Z 25007KT 05/M03 A2985 RMK A01 T00481028  RH  058%=      5-min Rain = 0
KST4 140140Z 25008KT 05/M03 A2985 RMK A01 T00461027  RH  059%=      5-min Rain = 0
KST4 140141Z 25008KT 04/M03 A2985 RMK A01 T00441026  RH  060%=      5-min Rain = 0
KST4 140142Z 25008KT 04/M03 A2985 RMK A01 T00421025  RH  062%=      5-min Rain = 0
KST4 140143Z 25008KT 04/M03 A2985 RMK A01 T00411025  RH  062%=      5-min Rain = 0
KST4 140144Z 24008KT 04/M03 A2985 RMK A01 T00411025  RH  062%=      5-min Rain = 0
KST4 140145Z 24008KT 04/M03 A2985 RMK A01 T00411026  RH  062%=      5-min Rain = 0
KST4 140146Z 24009KT 04/M03 A2985 RMK A01 T00421026  RH  061%=      5-min Rain = 0
KST4 140147Z 24009KT 04/M02 A2985 RMK A01 T00411024  RH  062%=      5-min Rain = 0
KST4 140148Z 24009KT 04/M02 A2985 RMK A01 T00401023  RH  063%=      5-min Rain = 0
KST4 140149Z 24009KT 04/M02 A2985 RMK A01 T00391024  RH  063%=      5-min Rain = 0
KST4 140150Z 24010KT 04/M03 A2985 RMK A01 T00401025  RH  063%=      5-min Rain = 0
KST4 140151Z 24010KT 04/M03 A2985 RMK A01 T00421025  RH  061%=      5-min Rain = 0
KST4 140152Z 23010KT 05/M03 A2985 RMK A01 T00451025  RH  061%=      5-min Rain = 0
KST4 140153Z 23010KT 05/M03 A2985 RMK A01 T00461025  RH  060%=      5-min Rain = 0
KST4 140154Z 23010KT 05/M03 A2985 RMK A01 T00461025  RH  060%=      5-min Rain = 0
KST4 140155Z 23010KT 05/M03 A2985 RMK A01 T00461025  RH  060%=      5-min Rain = 0
KST4 140156Z 23010KT 05/M03 A2985 RMK A01 T00461026  RH  059%=      5-min Rain = 0
KST4 140157Z 24009KT 05/M03 A2985 RMK A01 T00481027  RH  058%=      5-min Rain = 0
KST4 140158Z 23008KT 05/M03 A2985 RMK A01 T00521028  RH  056%=      5-min Rain = 0
KST4 140159Z 23009KT 05/M03 A2985 RMK A01 T00541029  RH  055%=      5-min Rain = 0
KST4 140200Z 23008KT 06/M03 A2985 RMK A01 T00561029  RH  054%=      5-min Rain = 0
KST4 140201Z 23009KT 06/M03 A2985 RMK A01 T00561030  RH  054%=      5-min Rain = 0
KST4 140202Z 23010KT 06/M03 A2985 RMK A01 T00561031  RH  054%=      5-min Rain = 0
KST4 140203Z 24010KT 06/M03 A2985 RMK A01 T00551031  RH  054%=      5-min Rain = 0
KST4 140204Z 24010KT 06/M03 A2985 RMK A01 T00551031  RH  054%=      5-min Rain = 0
KST4 140205Z 23011KT 06/M03 A2985 RMK A01 T00551031  RH  054%=      5-min Rain = 0
KST4 140206Z 24011KT 06/M03 A2985 RMK A01 T00551032  RH  053%=      5-min Rain = 0
KST4 140207Z 23011KT 06/M03 A2985 RMK A01 T00551033  RH  053%=      5-min Rain = 0
KST4 140208Z 23011KT 06/M03 A2985 RMK A01 T00571034  RH  052%=      5-min Rain = 0
KST4 140209Z 23011KT 06/M03 A2985 RMK A01 T00581034  RH  052%=      5-min Rain = 0
KST4 140210Z 24010KT 06/M03 A2985 RMK A01 T00581034  RH  052%=      5-min Rain = 0
KST4 140211Z 24010KT 06/M03 A2985 RMK A01 T00581034  RH  051%=      5-min Rain = 0
KST4 140212Z 24010KT 06/M03 A2985 RMK A01 T00581034  RH  052%=      5-min Rain = 0
KST4 140213Z 24010KT 06/M03 A2985 RMK A01 T00571034  RH  052%=      5-min Rain = 0
KST4 140214Z 24010KT 06/M03 A2985 RMK A01 T00561033  RH  053%=      5-min Rain = 0
KST4 140215Z 24010KT 05/M03 A2985 RMK A01 T00541033  RH  053%=      5-min Rain = 0
KST4 140216Z 24010KT 05/M03 A2985 RMK A01 T00541033  RH  053%=      5-min Rain = 0
KST4 140217Z 24010KT 05/M03 A2985 RMK A01 T00531034  RH  054%=      5-min Rain = 0
KST4 140218Z 24009KT 05/M03 A2985 RMK A01 T00521033  RH  054%=      5-min Rain = 0
KST4 140219Z 24009KT 05/M03 A2985 RMK A01 T00511033  RH  054%=      5-min Rain = 0
KST4 140220Z 24009KT 05/M03 A2985 RMK A01 T00511033  RH  055%=      5-min Rain = 0
KST4 140221Z 24009KT 05/M03 A2985 RMK A01 T00511033  RH  055%=      5-min Rain = 0
KST4 140222Z 24009KT 05/M03 A2985 RMK A01 T00501033  RH  055%=      5-min Rain = 0
KST4 140223Z 24009KT 05/M03 A2985 RMK A01 T00501034  RH  055%=      5-min Rain = 0
KST4 140224Z 23009KT 05/M03 A2985 RMK A01 T00501033  RH  055%=      5-min Rain = 0
KST4 140225Z 23008KT 05/M03 A2985 RMK A01 T00491033  RH  055%=      5-min Rain = 0
KST4 140226Z 24007KT 05/M03 A2985 RMK A01 T00491034  RH  055%=      5-min Rain = 0
KST4 140227Z 24007KT 05/M03 A2985 RMK A01 T00491034  RH  055%=      5-min Rain = 0
KST4 140228Z 24007KT 05/M03 A2985 RMK A01 T00491034  RH  055%=      5-min Rain = 0
KST4 140229Z 24007KT 05/M03 A2985 RMK A01 T00491034  RH  055%=      5-min Rain = 0
KST4 140230Z 24007KT 05/M04 A2985 RMK A01 T00481035  RH  055%=      5-min Rain = 0
KST4 140231Z 24008KT 05/M04 A2985 RMK A01 T00481035  RH  055%=      5-min Rain = 0
KST4 140232Z 24008KT 05/M04 A2984 RMK A01 T00481035  RH  055%=      5-min Rain = 0
KST4 140233Z 24008KT 05/M04 A2984 RMK A01 T00481035  RH  055%=      5-min Rain = 0
KST4 140234Z 24008KT 05/M04 A2984 RMK A01 T00481035  RH  055%=      5-min Rain = 0
KST4 140235Z 24008KT 05/M03 A2984 RMK A01 T00481034  RH  055%=      5-min Rain = 0
KST4 140236Z 24007KT 05/M03 A2984 RMK A01 T00481033  RH  056%=      5-min Rain = 0
KST4 140237Z 24008KT 05/M03 A2984 RMK A01 T00481032  RH  056%=      5-min Rain = 0
KST4 140238Z 24007KT 05/M03 A2984 RMK A01 T00481032  RH  056%=      5-min Rain = 0
KST4 140239Z 24007KT 05/M03 A2984 RMK A01 T00471032  RH  057%=      5-min Rain = 0
KST4 140240Z 24007KT 05/M03 A2984 RMK A01 T00471031  RH  057%=      5-min Rain = 0
KST4 140241Z 24007KT 05/M03 A2984 RMK A01 T00471031  RH  057%=      5-min Rain = 0
KST4 140242Z 24006KT 05/M03 A2985 RMK A01 T00471031  RH  057%=      5-min Rain = 0
KST4 140243Z 24006KT 05/M03 A2985 RMK A01 T00461031  RH  057%=      5-min Rain = 0
KST4 140244Z 24006KT 05/M03 A2985 RMK A01 T00461031  RH  057%=      5-min Rain = 0
KST4 140245Z 24006KT 05/M03 A2985 RMK A01 T00451031  RH  058%=      5-min Rain = 0
KST4 140246Z 24007KT 05/M03 A2985 RMK A01 T00451031  RH  058%=      5-min Rain = 0
KST4 140247Z 23007KT 05/M03 A2984 RMK A01 T00451031  RH  057%=      5-min Rain = 0
KST4 140248Z 24007KT 05/M03 A2984 RMK A01 T00451032  RH  057%=      5-min Rain = 0
KST4 140249Z 24006KT 05/M03 A2984 RMK A01 T00451031  RH  057%=      5-min Rain = 0
KST4 140250Z 24006KT 05/M03 A2984 RMK A01 T00451030  RH  058%=      5-min Rain = 0
KST4 140251Z 24006KT 05/M03 A2984 RMK A01 T00451029  RH  059%=      5-min Rain = 0
KST4 140252Z 24006KT 05/M03 A2984 RMK A01 T00451028  RH  059%=      5-min Rain = 0
KST4 140253Z 24007KT 05/M03 A2984 RMK A01 T00451028  RH  059%=      5-min Rain = 0
KST4 140254Z 24007KT 05/M03 A2984 RMK A01 T00461027  RH  059%=      5-min Rain = 0
KST4 140255Z 24007KT 05/M03 A2984 RMK A01 T00471027  RH  059%=      5-min Rain = 0
KST4 140256Z 25007KT 05/M03 A2984 RMK A01 T00491026  RH  058%=      5-min Rain = 0
KST4 140257Z 25007KT 05/M03 A2984 RMK A01 T00491026  RH  058%=      5-min Rain = 0
KST4 140258Z 25007KT 05/M03 A2984 RMK A01 T00491025  RH  059%=      5-min Rain = 0
KST4 140259Z 24007KT 05/M02 A2984 RMK A01 T00491024  RH  059%=      5-min Rain = 0
KST4 140300Z 25008KT 05/M02 A2984 RMK A01 T00491024  RH  059%=      5-min Rain = 0
KST4 140301Z 25007KT 05/M02 A2984 RMK A01 T00491023  RH  059%=      5-min Rain = 0
KST4 140302Z 25007KT 05/M02 A2984 RMK A01 T00511023  RH  059%=      5-min Rain = 0
KST4 140303Z 25007KT 05/M02 A2984 RMK A01 T00521023  RH  058%=      5-min Rain = 0
KST4 140304Z 25006KT 06/M02 A2984 RMK A01 T00551023  RH  057%=      5-min Rain = 0
KST4 140305Z 24006KT 06/M02 A2984 RMK A01 T00571023  RH  056%=      5-min Rain = 0
KST4 140306Z 24007KT 06/M02 A2984 RMK A01 T00591023  RH  056%=      5-min Rain = 0
KST4 140307Z 24008KT 06/M02 A2984 RMK A01 T00611022  RH  055%=      5-min Rain = 0
KST4 140308Z 25008KT 06/M02 A2984 RMK A01 T00621021  RH  055%=      5-min Rain = 0
KST4 140309Z 25008KT 06/M02 A2984 RMK A01 T00631021  RH  055%=      5-min Rain = 0
KST4 140310Z 24008KT 06/M02 A2984 RMK A01 T00641021  RH  055%=      5-min Rain = 0
KST4 140311Z 24008KT 06/M02 A2983 RMK A01 T00641021  RH  055%=      5-min Rain = 0
KST4 140312Z 25008KT 06/M02 A2983 RMK A01 T00641021  RH  055%=      5-min Rain = 0
KST4 140313Z 25009KT 06/M02 A2983 RMK A01 T00641021  RH  055%=      5-min Rain = 0
KST4 140314Z 25009KT 06/M02 A2983 RMK A01 T00641020  RH  055%=      5-min Rain = 0
KST4 140315Z 25009KT 06/M02 A2983 RMK A01 T00631020  RH  055%=      5-min Rain = 0
KST4 140316Z 25010KT 06/M02 A2983 RMK A01 T00621020  RH  056%=      5-min Rain = 0
KST4 140317Z 25010KT 06/M02 A2983 RMK A01 T00611019  RH  056%=      5-min Rain = 0
KST4 140318Z 25010KT 06/M02 A2983 RMK A01 T00601019  RH  057%=      5-min Rain = 0
KST4 140319Z 25010KT 06/M02 A2983 RMK A01 T00591018  RH  057%=      5-min Rain = 0
KST4 140320Z 25010KT 06/M02 A2983 RMK A01 T00581018  RH  058%=      5-min Rain = 0
KST4 140321Z 26010KT 06/M02 A2983 RMK A01 T00581018  RH  058%=      5-min Rain = 0
KST4 140322Z 25010KT 06/M02 A2983 RMK A01 T00581017  RH  059%=      5-min Rain = 0
KST4 140323Z 25011KT 06/M02 A2983 RMK A01 T00581016  RH  059%=      5-min Rain = 0
KST4 140324Z 25011KT 06/M02 A2983 RMK A01 T00581016  RH  059%=      5-min Rain = 0
KST4 140325Z 25011KT 06/M02 A2983 RMK A01 T00591015  RH  059%=      5-min Rain = 0
KST4 140326Z 25012KT 06/M01 A2983 RMK A01 T00611014  RH  058%=      5-min Rain = 0
KST4 140327Z 25011KT 06/M01 A2983 RMK A01 T00631013  RH  058%=      5-min Rain = 0
KST4 140328Z 25011KT 06/M01 A2983 RMK A01 T00641013  RH  058%=      5-min Rain = 0
KST4 140329Z 25011KT 07/M01 A2983 RMK A01 T00661013  RH  057%=      5-min Rain = 0
KST4 140330Z 25011KT 07/M01 A2983 RMK A01 T00671012  RH  057%=      5-min Rain = 0
KST4 140331Z 25010KT 07/M01 A2983 RMK A01 T00671012  RH  057%=      5-min Rain = 0
KST4 140332Z 26010KT 07/M01 A2983 RMK A01 T00661012  RH  057%=      5-min Rain = 0
KST4 140333Z 25010KT 07/M01 A2983 RMK A01 T00661011  RH  058%=      5-min Rain = 0
KST4 140334Z 25010KT 07/M01 A2983 RMK A01 T00651011  RH  058%=      5-min Rain = 0
KST4 140335Z 25011KT 07/M01 A2983 RMK A01 T00661011  RH  058%=      5-min Rain = 0
KST4 140336Z 25011KT 07/M01 A2983 RMK A01 T00681011  RH  057%=      5-min Rain = 0
KST4 140337Z 25011KT 07/M01 A2983 RMK A01 T00701010  RH  057%=      5-min Rain = 0
KST4 140338Z 25011KT 07/M01 A2983 RMK A01 T00721009  RH  056%=      5-min Rain = 0
KST4 140339Z 25011KT 07/M01 A2983 RMK A01 T00731009  RH  056%=      5-min Rain = 0
KST4 140340Z 25012KT 07/M01 A2983 RMK A01 T00741008  RH  056%=      5-min Rain = 0
KST4 140341Z 25012KT 08/M01 A2983 RMK A01 T00751008  RH  055%=      5-min Rain = 0
KST4 140342Z 25012KT 08/M01 A2983 RMK A01 T00771008  RH  055%=      5-min Rain = 0
KST4 140343Z 25011KT 08/M01 A2983 RMK A01 T00791008  RH  054%=      5-min Rain = 0
KST4 140344Z 25011KT 08/M01 A2983 RMK A01 T00801008  RH  054%=      5-min Rain = 0
KST4 140345Z 25011KT 08/M01 A2983 RMK A01 T00811008  RH  054%=      5-min Rain = 0
KST4 140346Z 25010KT 08/M01 A2983 RMK A01 T00811008  RH  053%=      5-min Rain = 0
KST4 140347Z 25011KT 08/M01 A2983 RMK A01 T00811008  RH  053%=      5-min Rain = 0
KST4 140348Z 26011KT 08/M01 A2983 RMK A01 T00801009  RH  053%=      5-min Rain = 0
KST4 140349Z 26011KT 08/M01 A2983 RMK A01 T00791009  RH  054%=      5-min Rain = 0
KST4 140350Z 26010KT 08/M01 A2983 RMK A01 T00771009  RH  054%=      5-min Rain = 0
KST4 140351Z 26010KT 08/M01 A2983 RMK A01 T00771009  RH  055%=      5-min Rain = 0
KST4 140352Z 26010KT 08/M01 A2982 RMK A01 T00761009  RH  055%=      5-min Rain = 0
KST4 140353Z 25010KT 07/M01 A2982 RMK A01 T00741010  RH  055%=      5-min Rain = 0
KST4 140354Z 25010KT 07/M01 A2982 RMK A01 T00741010  RH  055%=      5-min Rain = 0
KST4 140355Z 25010KT 07/M01 A2982 RMK A01 T00721010  RH  056%=      5-min Rain = 0
KST4 140356Z 25011KT 07/M01 A2982 RMK A01 T00711010  RH  056%=      5-min Rain = 0
KST4 140357Z 25010KT 07/M01 A2982 RMK A01 T00701010  RH  057%=      5-min Rain = 0
KST4 140358Z 25010KT 07/M01 A2982 RMK A01 T00701009  RH  057%=      5-min Rain = 0
KST4 140359Z 25010KT 07/M01 A2982 RMK A01 T00691009  RH  058%=      5-min Rain = 0
KST4 140400Z 26010KT 07/M01 A2983 RMK A01 T00681009  RH  058%=      5-min Rain = 0
KST4 140401Z 26011KT 07/M01 A2983 RMK A01 T00671009  RH  058%=      5-min Rain = 0
KST4 140402Z 26010KT 07/M01 A2983 RMK A01 T00671009  RH  058%=      5-min Rain = 0
KST4 140403Z 26010KT 07/M01 A2983 RMK A01 T00661008  RH  059%=      5-min Rain = 0
KST4 140404Z 26010KT 07/M01 A2983 RMK A01 T00661008  RH  059%=      5-min Rain = 0
KST4 140405Z 26010KT 07/M01 A2982 RMK A01 T00681008  RH  059%=      5-min Rain = 0
KST4 140406Z 26010KT 07/M01 A2982 RMK A01 T00691007  RH  058%=      5-min Rain = 0
KST4 140407Z 26009KT 07/M01 A2982 RMK A01 T00711007  RH  058%=      5-min Rain = 0
KST4 140408Z 26009KT 07/M01 A2982 RMK A01 T00731006  RH  057%=      5-min Rain = 0
KST4 140409Z 26009KT 07/M01 A2982 RMK A01 T00741006  RH  057%=      5-min Rain = 0
KST4 140410Z 26009KT 08/M01 A2982 RMK A01 T00751006  RH  056%=      5-min Rain = 0
KST4 140411Z 26009KT 08/M01 A2982 RMK A01 T00761006  RH  056%=      5-min Rain = 0
KST4 140412Z 26009KT 08/M01 A2982 RMK A01 T00761006  RH  056%=      5-min Rain = 0
KST4 140413Z 26009KT 08/M01 A2982 RMK A01 T00761005  RH  056%=      5-min Rain = 0
KST4 140414Z 26009KT 08/M01 A2982 RMK A01 T00751005  RH  057%=      5-min Rain = 0
KST4 140415Z 26009KT 07/M01 A2982 RMK A01 T00741006  RH  057%=      5-min Rain = 0
KST4 140416Z 26009KT 07/M01 A2982 RMK A01 T00731005  RH  057%=      5-min Rain = 0
KST4 140417Z 26008KT 07/M01 A2982 RMK A01 T00731005  RH  058%=      5-min Rain = 0
KST4 140418Z 26009KT 07/M01 A2982 RMK A01 T00731005  RH  058%=      5-min Rain = 0
KST4 140419Z 27009KT 07/M01 A2982 RMK A01 T00721006  RH  058%=      5-min Rain = 0
KST4 140420Z 27009KT 07/M01 A2982 RMK A01 T00721006  RH  058%=      5-min Rain = 0
KST4 140421Z 27009KT 07/M01 A2982 RMK A01 T00731006  RH  057%=      5-min Rain = 0
KST4 140422Z 27010KT 07/M01 A2983 RMK A01 T00741007  RH  057%=      5-min Rain = 0
KST4 140423Z 27010KT 07/M01 A2983 RMK A01 T00741007  RH  056%=      5-min Rain = 0
KST4 140424Z 27010KT 08/M01 A2983 RMK A01 T00751008  RH  056%=      5-min Rain = 0
KST4 140425Z 27009KT 08/M01 A2983 RMK A01 T00751008  RH  056%=      5-min Rain = 0
KST4 140426Z 28010KT 07/M01 A2983 RMK A01 T00721009  RH  056%=      5-min Rain = 0
KST4 140427Z 28010KT 07/M01 A2983 RMK A01 T00701010  RH  057%=      5-min Rain = 0
KST4 140428Z 27010KT 07/M01 A2983 RMK A01 T00691010  RH  057%=      5-min Rain = 0
KST4 140429Z 27009KT 07/M01 A2982 RMK A01 T00681010  RH  057%=      5-min Rain = 0
KST4 140430Z 27009KT 07/M01 A2982 RMK A01 T00691010  RH  057%=      5-min Rain = 0
KST4 140431Z 27009KT 07/M01 A2982 RMK A01 T00691010  RH  057%=      5-min Rain = 0
KST4 140432Z 27009KT 07/M01 A2982 RMK A01 T00691010  RH  057%=      5-min Rain = 0
KST4 140433Z 28009KT 07/M01 A2982 RMK A01 T00701010  RH  057%=      5-min Rain = 0
KST4 140434Z 28009KT 07/M01 A2983 RMK A01 T00691011  RH  057%=      5-min Rain = 0
KST4 140435Z 28009KT 07/M01 A2982 RMK A01 T00681011  RH  057%=      5-min Rain = 0
KST4 140436Z 28008KT 07/M01 A2982 RMK A01 T00671012  RH  057%=      5-min Rain = 0
KST4 140437Z 28008KT 07/M01 A2982 RMK A01 T00671013  RH  056%=      5-min Rain = 0
KST4 140438Z 28008KT 07/M01 A2982 RMK A01 T00671014  RH  056%=      5-min Rain = 0
KST4 140439Z 28008KT 07/M02 A2982 RMK A01 T00661015  RH  056%=      5-min Rain = 0
KST4 140440Z 27007KT 07/M02 A2982 RMK A01 T00661015  RH  056%=      5-min Rain = 0
KST4 140441Z 27007KT 07/M02 A2982 RMK A01 T00651015  RH  056%=      5-min Rain = 0
KST4 140442Z 27008KT 06/M02 A2982 RMK A01 T00641015  RH  057%=      5-min Rain = 0
KST4 140443Z 27008KT 06/M02 A2982 RMK A01 T00631015  RH  057%=      5-min Rain = 0
KST4 140444Z 27007KT 06/M02 A2982 RMK A01 T00631015  RH  057%=      5-min Rain = 0
KST4 140445Z 27007KT 06/M02 A2982 RMK A01 T00621015  RH  058%=      5-min Rain = 0
KST4 140446Z 28006KT 06/M02 A2982 RMK A01 T00611015  RH  058%=      5-min Rain = 0
KST4 140447Z 28007KT 06/M02 A2982 RMK A01 T00601016  RH  058%=      5-min Rain = 0
KST4 140448Z 28006KT 06/M02 A2982 RMK A01 T00591017  RH  058%=      5-min Rain = 0
KST4 140449Z 28006KT 06/M02 A2982 RMK A01 T00581018  RH  058%=      5-min Rain = 0
KST4 140450Z 28006KT 06/M02 A2982 RMK A01 T00571018  RH  059%=      5-min Rain = 0
KST4 140451Z 28006KT 06/M02 A2982 RMK A01 T00561018  RH  059%=      5-min Rain = 0
KST4 140452Z 28006KT 06/M02 A2981 RMK A01 T00551018  RH  059%=      5-min Rain = 0
KST4 140453Z 28007KT 05/M02 A2981 RMK A01 T00531018  RH  060%=      5-min Rain = 0
KST4 140454Z 28007KT 05/M02 A2981 RMK A01 T00521019  RH  060%=      5-min Rain = 0
KST4 140455Z 27006KT 05/M02 A2981 RMK A01 T00511019  RH  060%=      5-min Rain = 0
KST4 140456Z 27007KT 05/M02 A2981 RMK A01 T00511019  RH  061%=      5-min Rain = 0
KST4 140457Z 27007KT 05/M02 A2981 RMK A01 T00511018  RH  061%=      5-min Rain = 0
KST4 140458Z 28008KT 05/M02 A2981 RMK A01 T00501018  RH  061%=      5-min Rain = 0
KST4 140459Z 28008KT 05/M02 A2981 RMK A01 T00501019  RH  061%=      5-min Rain = 0
KST4 140500Z 28008KT 05/M02 A2981 RMK A01 T00501019  RH  061%=      5-min Rain = 0
KST4 140501Z 28009KT 05/M02 A2981 RMK A01 T00521020  RH  060%=      5-min Rain = 0
KST4 140502Z 28009KT 05/M02 A2981 RMK A01 T00541019  RH  059%=      5-min Rain = 0
KST4 140503Z 28008KT 06/M02 A2981 RMK A01 T00561019  RH  058%=      5-min Rain = 0
KST4 140504Z 28007KT 06/M02 A2981 RMK A01 T00581019  RH  058%=      5-min Rain = 0
KST4 140505Z 28008KT 06/M02 A2981 RMK A01 T00591020  RH  057%=      5-min Rain = 0
KST4 140506Z 28008KT 06/M02 A2981 RMK A01 T00591021  RH  056%=      5-min Rain = 0
KST4 140507Z 28008KT 06/M02 A2982 RMK A01 T00601021  RH  056%=      5-min Rain = 0
KST4 140508Z 29009KT 06/M02 A2982 RMK A01 T00601021  RH  056%=      5-min Rain = 0
KST4 140509Z 29009KT 06/M02 A2982 RMK A01 T00601021  RH  056%=      5-min Rain = 0
KST4 140510Z 28009KT 06/M02 A2981 RMK A01 T00601021  RH  056%=      5-min Rain = 0
KST4 140511Z 28009KT 06/M02 A2981 RMK A01 T00611021  RH  055%=      5-min Rain = 0
KST4 140512Z 28009KT 06/M02 A2981 RMK A01 T00631021  RH  055%=      5-min Rain = 0
KST4 140513Z 28009KT 06/M02 A2981 RMK A01 T00641022  RH  054%=      5-min Rain = 0
KST4 140514Z 29009KT 06/M02 A2981 RMK A01 T00641022  RH  054%=      5-min Rain = 0
KST4 140515Z 28009KT 07/M02 A2981 RMK A01 T00651022  RH  054%=      5-min Rain = 0
KST4 140516Z 28009KT 07/M02 A2981 RMK A01 T00651022  RH  054%=      5-min Rain = 0
KST4 140517Z 28009KT 06/M02 A2981 RMK A01 T00641023  RH  054%=      5-min Rain = 0
KST4 140518Z 29009KT 07/M02 A2981 RMK A01 T00651023  RH  053%=      5-min Rain = 0
KST4 140519Z 29009KT 07/M02 A2981 RMK A01 T00651023  RH  053%=      5-min Rain = 0
KST4 140520Z 29009KT 07/M02 A2982 RMK A01 T00651023  RH  053%=      5-min Rain = 0
KST4 140521Z 29010KT 07/M02 A2982 RMK A01 T00651024  RH  053%=      5-min Rain = 0
KST4 140522Z 29010KT 07/M02 A2982 RMK A01 T00651024  RH  053%=      5-min Rain = 0
KST4 140523Z 29010KT 07/M02 A2982 RMK A01 T00661024  RH  053%=      5-min Rain = 0
KST4 140524Z 29010KT 07/M02 A2982 RMK A01 T00661024  RH  053%=      5-min Rain = 0
KST4 140525Z 28009KT 07/M02 A2982 RMK A01 T00661024  RH  053%=      5-min Rain = 0
KST4 140526Z 28009KT 07/M02 A2982 RMK A01 T00661024  RH  053%=      5-min Rain = 0
KST4 140527Z 28010KT 07/M02 A2982 RMK A01 T00661024  RH  053%=      5-min Rain = 0
KST4 140528Z 28010KT 07/M02 A2982 RMK A01 T00661024  RH  053%=      5-min Rain = 0
KST4 140529Z 28010KT 07/M03 A2982 RMK A01 T00661025  RH  052%=      5-min Rain = 0
KST4 140530Z 28009KT 07/M02 A2982 RMK A01 T00661024  RH  052%=      5-min Rain = 0
KST4 140531Z 28010KT 07/M02 A2982 RMK A01 T00671024  RH  052%=      5-min Rain = 0
KST4 140532Z 28010KT 07/M02 A2982 RMK A01 T00671024  RH  052%=      5-min Rain = 0
KST4 140533Z 28011KT 07/M02 A2982 RMK A01 T00671024  RH  052%=      5-min Rain = 0
KST4 140534Z 28010KT 07/M03 A2982 RMK A01 T00671025  RH  052%=      5-min Rain = 0
KST4 140535Z 28010KT 07/M03 A2982 RMK A01 T00671025  RH  052%=      5-min Rain = 0
KST4 140536Z 29011KT 07/M03 A2982 RMK A01 T00671025  RH  052%=      5-min Rain = 0
KST4 140537Z 29011KT 07/M02 A2982 RMK A01 T00671024  RH  052%=      5-min Rain = 0
KST4 140538Z 28011KT 07/M03 A2982 RMK A01 T00671025  RH  052%=      5-min Rain = 0
KST4 140539Z 28011KT 07/M03 A2982 RMK A01 T00671025  RH  052%=      5-min Rain = 0
KST4 140540Z 29011KT 07/M03 A2982 RMK A01 T00671025  RH  052%=      5-min Rain = 0
KST4 140541Z 29011KT 07/M03 A2982 RMK A01 T00671025  RH  052%=      5-min Rain = 0
KST4 140542Z 28012KT 07/M03 A2982 RMK A01 T00681025  RH  052%=      5-min Rain = 0
KST4 140543Z 28011KT 07/M03 A2982 RMK A01 T00671025  RH  052%=      5-min Rain = 0
KST4 140544Z 29011KT 07/M03 A2982 RMK A01 T00671025  RH  052%=      5-min Rain = 0
KST4 140545Z 29011KT 07/M03 A2982 RMK A01 T00671025  RH  052%=      5-min Rain = 0
KST4 140546Z 30010KT 07/M03 A2982 RMK A01 T00661025  RH  052%=      5-min Rain = 0
KST4 140547Z 29009KT 07/M03 A2982 RMK A01 T00651026  RH  052%=      5-min Rain = 0
KST4 140548Z 29009KT 06/M03 A2982 RMK A01 T00641025  RH  053%=      5-min Rain = 0
KST4 140549Z 30010KT 06/M03 A2982 RMK A01 T00631026  RH  053%=      5-min Rain = 0
KST4 140550Z 29009KT 06/M03 A2982 RMK A01 T00631026  RH  053%=      5-min Rain = 0
KST4 140551Z 29011KT 06/M03 A2982 RMK A01 T00621026  RH  053%=      5-min Rain = 0
KST4 140552Z 29011KT 06/M03 A2982 RMK A01 T00631026  RH  053%=      5-min Rain = 0
KST4 140553Z 29010KT 06/M03 A2982 RMK A01 T00631026  RH  053%=      5-min Rain = 0
KST4 140554Z 29010KT 06/M03 A2982 RMK A01 T00631025  RH  053%=      5-min Rain = 0
KST4 140555Z 29010KT 06/M03 A2982 RMK A01 T00631025  RH  053%=      5-min Rain = 0
KST4 140556Z 28011KT 06/M03 A2982 RMK A01 T00621025  RH  054%=      5-min Rain = 0
KST4 140557Z 28011KT 06/M03 A2982 RMK A01 T00621025  RH  054%=      5-min Rain = 0
KST4 140558Z 28011KT 06/M03 A2982 RMK A01 T00611025  RH  054%=      5-min Rain = 0
KST4 140559Z 28011KT 06/M03 A2982 RMK A01 T00611025  RH  054%=      5-min Rain = 0

Page generated in 0.0648 seconds.